| time (UTC) | temp C | wind direction | speed KPH | gust KPH | rain 1hr cm | rain 24hr cm | rain mn cm | humidity % | barometer mb |
| 20260905182903 | 17 | 196 | 0.0 | 1.6 | 0.00 | 0.00 | 0.00 | 72 | 1017.6 |
| 20260905182846 | 17 | 196 | 0.0 | 1.6 | 0.00 | 0.00 | 0.00 | 72 | 1017.6 |
| 20260905182828 | 17 | 196 | 0.0 | 1.6 | 0.00 | 0.00 | 0.00 | 71 | 1017.4 |
| 20260905182821 | 17 | 197 | 0.0 | 1.6 | 0.00 | 0.00 | 0.00 | 71 | 1017.4 |
| 20260905182502 | 17 | 200 | 0.0 | 1.6 | 0.00 | 0.00 | 0.00 | 70 | 1017.5 |
| 20260905182402 | 17 | 196 | 0.0 | 1.6 | 0.00 | 0.00 | 0.00 | 70 | 1017.5 |
| 20260905182317 | 17 | 196 | 0.0 | 1.6 | 0.00 | 0.00 | 0.00 | 69 | 1017.5 |
| 20260905182311 | 17 | 194 | 0.0 | 1.6 | 0.00 | 0.00 | 0.00 | 71 | 1017.6 |
| 20260905182256 | 17 | 196 | 0.0 | 1.6 | 0.00 | 0.00 | 0.00 | 71 | 1017.4 |
| 20260905182236 | 17 | 196 | 0.0 | 1.6 | 0.00 | 0.00 | 0.00 | 70 | 1017.4 |
| 20260905182220 | 17 | 194 | 0.0 | 1.6 | 0.00 | 0.00 | 0.00 | 70 | 1017.5 |
| 20260905182204 | 17 | 192 | 0.0 | 1.6 | 0.00 | 0.00 | 0.00 | 70 | 1017.5 |
| 20260905181928 | 17 | 195 | 0.0 | 1.6 | 0.00 | 0.00 | 0.00 | 70 | 1017.5 |
| 20260905181658 | 17 | 196 | 0.0 | 1.6 | 0.00 | 0.00 | 0.00 | 69 | 1017.2 |
| 20260905181558 | 17 | 195 | 0.0 | 1.6 | 0.00 | 0.00 | 0.00 | 70 | 1017.3 |
| 20260905181458 | 17 | 195 | 0.0 | 1.6 | 0.00 | 0.00 | 0.00 | 70 | 1017.2 |
| 20260905181359 | 17 | 196 | 0.0 | 1.6 | 0.00 | 0.00 | 0.00 | 70 | 1017.3 |
| 20260905181258 | 17 | 197 | 0.0 | 1.6 | 0.00 | 0.00 | 0.00 | 70 | 1017.4 |
| 20260905181206 | 17 | 199 | 0.0 | 1.6 | 0.00 | 0.00 | 0.00 | 70 | 1017.4 |
| 20260905181158 | 17 | 199 | 0.0 | 1.6 | 0.00 | 0.00 | 0.00 | 70 | 1017.4 |
| 20260905181058 | 17 | 186 | 0.0 | 1.6 | 0.00 | 0.00 | 0.00 | 70 | 1017.5 |
| 20260905181000 | 17 | 194 | 0.0 | 1.6 | 0.00 | 0.00 | 0.00 | 69 | 1017.2 |
| 20260905180907 | 17 | 192 | 0.0 | 1.6 | 0.00 | 0.00 | 0.00 | 70 | 1017.4 |
| 20260905180851 | 17 | 198 | 0.0 | 1.6 | 0.00 | 0.00 | 0.00 | 70 | 1017.2 |
| 20260905180833 | 17 | 198 | 0.0 | 1.6 | 0.00 | 0.00 | 0.00 | 69 | 1017.2 |
| 20260905180827 | 17 | 198 | 0.0 | 1.6 | 0.00 | 0.00 | 0.00 | 69 | 1017.3 |
| 20260905180551 | 18 | 188 | 0.0 | 1.6 | 0.00 | 0.00 | 0.00 | 70 | 1017.3 |
| 20260905180536 | 18 | 195 | 0.0 | 1.6 | 0.00 | 0.00 | 0.00 | 69 | 1017.4 |
| 20260905180304 | 18 | 196 | 0.0 | 1.6 | 0.00 | 0.00 | 0.00 | 69 | 1017.2 |
| 20260905180255 | 18 | 195 | 0.0 | 1.6 | 0.00 | 0.00 | 0.00 | 69 | 1017.4 |
| 20260905175934 | 18 | 203 | 0.0 | 1.6 | 0.00 | 0.00 | 0.00 | 68 | 1017.5 |
| 20260905175834 | 18 | 198 | 0.0 | 1.6 | 0.00 | 0.00 | 0.00 | 68 | 1017.4 |
| 20260905175706 | 18 | 199 | 0.0 | 1.6 | 0.00 | 0.00 | 0.00 | 68 | 1017.3 |
| 20260905175634 | 18 | 196 | 0.0 | 1.6 | 0.00 | 0.00 | 0.00 | 68 | 1017.1 |
| 20260905175534 | 18 | 197 | 0.0 | 1.6 | 0.00 | 0.00 | 0.00 | 67 | 1017.2 |
| 20260905175434 | 18 | 203 | 0.0 | 1.6 | 0.00 | 0.00 | 0.00 | 67 | 1017.2 |
| 20260905175334 | 18 | 196 | 0.0 | 1.6 | 0.00 | 0.00 | 0.00 | 66 | 1017.3 |
| 20260905175316 | 18 | 185 | 0.0 | 1.6 | 0.00 | 0.00 | 0.00 | 67 | 1017.1 |
| 20260905175306 | 18 | 191 | 0.0 | 1.6 | 0.00 | 0.00 | 0.00 | 67 | 1017.1 |
| 20260905175254 | 18 | 192 | 0.0 | 1.6 | 0.00 | 0.00 | 0.00 | 67 | 1017.2 |
| 20260905175011 | 18 | 193 | 0.0 | 1.6 | 0.00 | 0.00 | 0.00 | 67 | 1017.2 |
| 20260905174955 | 18 | 192 | 0.0 | 1.6 | 0.00 | 0.00 | 0.00 | 66 | 1017.2 |
| 20260905174940 | 18 | 194 | 0.0 | 1.6 | 0.00 | 0.00 | 0.00 | 66 | 1017.1 |
| 20260905174925 | 18 | 196 | 0.0 | 1.6 | 0.00 | 0.00 | 0.00 | 66 | 1017.1 |
| 20260905174654 | 18 | 191 | 0.0 | 0.0 | 0.00 | 0.00 | 0.00 | 66 | 1017.2 |
| 20260905174359 | 18 | 196 | 0.0 | 0.0 | 0.00 | 0.00 | 0.00 | 66 | 1017.3 |
| 20260905174343 | 18 | 268 | 0.0 | 0.0 | 0.00 | 0.00 | 0.00 | 67 | 1017.0 |
| 20260905174330 | 18 | 268 | 0.0 | 0.0 | 0.00 | 0.00 | 0.00 | 66 | 1017.0 |
| 20260905174321 | 18 | 268 | 0.0 | 1.6 | 0.00 | 0.00 | 0.00 | 66 | 1017.1 |
| 20260905174306 | 18 | 194 | 0.0 | 1.6 | 0.00 | 0.00 | 0.00 | 67 | 1017.1 |
| 20260905174029 | 18 | 194 | 0.0 | 1.6 | 0.00 | 0.00 | 0.00 | 66 | 1017.0 |
| 20260905174013 | 18 | 191 | 0.0 | 1.6 | 0.00 | 0.00 | 0.00 | 66 | 1017.0 |
| 20260905173958 | 18 | 193 | 0.0 | 1.6 | 0.00 | 0.00 | 0.00 | 66 | 1017.0 |
| 20260905173729 | 18 | 198 | 0.0 | 1.6 | 0.00 | 0.00 | 0.00 | 66 | 1017.0 |
| 20260905173453 | 18 | 197 | 0.0 | 1.6 | 0.00 | 0.00 | 0.00 | 66 | 1017.1 |
| 20260905173206 | 18 | 202 | 0.0 | 1.6 | 0.00 | 0.00 | 0.00 | 65 | 1017.0 |
| 20260905173135 | 18 | 196 | 0.0 | 1.6 | 0.00 | 0.00 | 0.00 | 66 | 1017.1 |
| 20260905173044 | 18 | 197 | 0.0 | 1.6 | 0.00 | 0.00 | 0.00 | 66 | 1016.8 |
| 20260905173038 | 18 | 198 | 0.0 | 1.6 | 0.00 | 0.00 | 0.00 | 65 | 1017.0 |
| 20260905173023 | 18 | 198 | 0.0 | 1.6 | 0.00 | 0.00 | 0.00 | 66 | 1017.0 |
| 20260905173007 | 18 | 190 | 0.0 | 1.6 | 0.00 | 0.00 | 0.00 | 66 | 1017.0 |
| 20260905172953 | 18 | 198 | 0.0 | 1.6 | 0.00 | 0.00 | 0.00 | 66 | 1017.1 |
| 20260905172942 | 18 | 199 | 0.0 | 1.6 | 0.00 | 0.00 | 0.00 | 65 | 1017.1 |
| 20260905172931 | 18 | 196 | 0.0 | 1.6 | 0.00 | 0.00 | 0.00 | 66 | 1017.0 |
| 20260905172655 | 18 | 194 | 0.0 | 1.6 | 0.00 | 0.00 | 0.00 | 66 | 1017.1 |
| 20260905172421 | 18 | 197 | 0.0 | 1.6 | 0.00 | 0.00 | 0.00 | 66 | 1016.8 |
| 20260905172110 | 18 | 188 | 0.0 | 1.6 | 0.00 | 0.00 | 0.00 | 65 | 1016.9 |
| 20260905172010 | 18 | 134 | 0.0 | 1.6 | 0.00 | 0.00 | 0.00 | 66 | 1017.0 |
| 20260905171955 | 18 | 192 | 0.0 | 1.6 | 0.00 | 0.00 | 0.00 | 66 | 1017.1 |
| 20260905171939 | 18 | 192 | 0.0 | 1.6 | 0.00 | 0.00 | 0.00 | 67 | 1017.0 |
| 20260905171710 | 18 | 192 | 0.0 | 1.6 | 0.00 | 0.00 | 0.00 | 67 | 1017.0 |
| 20260905171610 | 18 | 190 | 0.0 | 1.6 | 0.00 | 0.00 | 0.00 | 67 | 1016.9 |
| 20260905171510 | 18 | 194 | 0.0 | 1.6 | 0.00 | 0.00 | 0.00 | 67 | 1016.9 |
| 20260905171410 | 18 | 195 | 0.0 | 1.6 | 0.00 | 0.00 | 0.00 | 68 | 1016.7 |
| 20260905171311 | 18 | 180 | 0.0 | 1.6 | 0.00 | 0.00 | 0.00 | 67 | 1016.9 |
| 20260905171210 | 18 | 187 | 0.0 | 1.6 | 0.00 | 0.00 | 0.00 | 67 | 1017.0 |
| 20260905171110 | 18 | 197 | 0.0 | 1.6 | 0.00 | 0.00 | 0.00 | 66 | 1016.9 |
| 20260905171046 | 18 | 191 | 0.0 | 1.6 | 0.00 | 0.00 | 0.00 | 66 | 1017.0 |
| 20260905171030 | 18 | 196 | 1.6 | 1.6 | 0.00 | 0.00 | 0.00 | 66 | 1017.1 |
| 20260905170711 | 18 | 193 | 0.0 | 1.6 | 0.00 | 0.00 | 0.00 | 66 | 1017.0 |
| 20260905170610 | 18 | 192 | 0.0 | 1.6 | 0.00 | 0.00 | 0.00 | 66 | 1016.8 |
| 20260905170554 | 18 | 197 | 0.0 | 1.6 | 0.00 | 0.00 | 0.00 | 66 | 1017.0 |
| 20260905170538 | 18 | 187 | 0.0 | 1.6 | 0.00 | 0.00 | 0.00 | 67 | 1016.9 |
| 20260905170314 | 18 | 189 | 0.0 | 1.6 | 0.00 | 0.00 | 0.00 | 67 | 1016.9 |
| 20260905170252 | 18 | 196 | 0.0 | 1.6 | 0.00 | 0.00 | 0.00 | 67 | 1016.8 |
| 20260905170236 | 18 | 186 | 0.0 | 1.6 | 0.00 | 0.00 | 0.00 | 67 | 1016.8 |
| 20260905170011 | 18 | 194 | 0.0 | 1.6 | 0.00 | 0.00 | 0.00 | 67 | 1016.7 |
| 20260905165955 | 18 | 194 | 0.0 | 1.6 | 0.00 | 0.00 | 0.00 | 66 | 1016.8 |
| 20260905165940 | 18 | 195 | 0.0 | 1.6 | 0.00 | 0.00 | 0.00 | 67 | 1016.9 |
| 20260905165919 | 18 | 193 | 0.0 | 1.6 | 0.00 | 0.00 | 0.00 | 67 | 1016.9 |
| 20260905165610 | 19 | 194 | 0.0 | 1.6 | 0.00 | 0.00 | 0.00 | 66 | 1016.7 |
| 20260905165511 | 19 | 188 | 0.0 | 1.6 | 0.00 | 0.00 | 0.00 | 66 | 1016.8 |
| 20260905165410 | 19 | 195 | 0.0 | 0.0 | 0.00 | 0.00 | 0.00 | 65 | 1016.9 |
| 20260905165311 | 19 | 197 | 0.0 | 0.0 | 0.00 | 0.00 | 0.00 | 65 | 1016.7 |
| 20260905165210 | 19 | 195 | 0.0 | 0.0 | 0.00 | 0.00 | 0.00 | 65 | 1016.7 |
| 20260905165110 | 19 | 203 | 0.0 | 0.0 | 0.00 | 0.00 | 0.00 | 65 | 1016.8 |
| 20260905165010 | 19 | 192 | 0.0 | 0.0 | 0.00 | 0.00 | 0.00 | 65 | 1016.8 |
| 20260905164914 | 19 | 122 | 0.0 | 0.0 | 0.00 | 0.00 | 0.00 | 66 | 1016.7 |
| 20260905164812 | 19 | 192 | 0.0 | 0.0 | 0.00 | 0.00 | 0.00 | 66 | 1016.7 |
| 20260905164709 | 19 | 194 | 0.0 | 0.0 | 0.00 | 0.00 | 0.00 | 65 | 1016.7 |
| 20260905164421 | 19 | 196 | 0.0 | 1.6 | 0.00 | 0.00 | 0.00 | 64 | 1016.8 |
| 20260905164405 | 19 | 195 | 0.0 | 1.6 | 0.00 | 0.00 | 0.00 | 64 | 1016.6 |
| 20260905164350 | 19 | 195 | 0.0 | 1.6 | 0.00 | 0.00 | 0.00 | 64 | 1016.6 |
| 20260905163853 | 19 | 193 | 0.0 | 1.6 | 0.00 | 0.00 | 0.00 | 65 | 1016.6 |
| 20260905163537 | 19 | 196 | 0.0 | 3.2 | 0.00 | 0.00 | 0.00 | 64 | 1016.8 |
| 20260905163438 | 19 | 198 | 0.0 | 3.2 | 0.00 | 0.00 | 0.00 | 64 | 1016.6 |
| 20260905163339 | 19 | 196 | 0.0 | 3.2 | 0.00 | 0.00 | 0.00 | 64 | 1016.8 |
| 20260905163321 | 19 | 207 | 0.0 | 3.2 | 0.00 | 0.00 | 0.00 | 64 | 1016.8 |
| 20260905163308 | 19 | 197 | 0.0 | 3.2 | 0.00 | 0.00 | 0.00 | 64 | 1016.8 |
| 20260905163259 | 19 | 191 | 0.0 | 3.2 | 0.00 | 0.00 | 0.00 | 64 | 1016.6 |
| 20260905162938 | 19 | 191 | 0.0 | 3.2 | 0.00 | 0.00 | 0.00 | 64 | 1016.9 |
| 20260905162905 | 20 | 195 | 0.0 | 3.2 | 0.00 | 0.00 | 0.00 | 63 | 1016.5 |
| 20260905162857 | 19 | 190 | 0.0 | 3.2 | 0.00 | 0.00 | 0.00 | 64 | 1016.6 |
| 20260905162840 | 19 | 192 | 0.0 | 3.2 | 0.00 | 0.00 | 0.00 | 64 | 1016.6 |
| 20260905162824 | 19 | 197 | 0.0 | 3.2 | 0.00 | 0.00 | 0.00 | 64 | 1016.6 |
| 20260905162815 | 19 | 182 | 0.0 | 3.2 | 0.00 | 0.00 | 0.00 | 64 | 1016.5 |
| 20260905162550 | 19 | 199 | 0.0 | 3.2 | 0.00 | 0.00 | 0.00 | 64 | 1016.3 |
| 20260905162535 | 19 | 123 | 0.0 | 3.2 | 0.00 | 0.00 | 0.00 | 64 | 1016.5 |
| 20260905162519 | 19 | 193 | 0.0 | 1.6 | 0.00 | 0.00 | 0.00 | 64 | 1016.5 |
| 20260905162503 | 19 | 194 | 0.0 | 3.2 | 0.00 | 0.00 | 0.00 | 64 | 1016.5 |
| 20260905162450 | 19 | 173 | 0.0 | 3.2 | 0.00 | 0.00 | 0.00 | 64 | 1016.5 |
| 20260905162441 | 19 | 194 | 0.0 | 3.2 | 0.00 | 0.00 | 0.00 | 64 | 1016.4 |
| 20260905162425 | 19 | 196 | 0.0 | 3.2 | 0.00 | 0.00 | 0.00 | 64 | 1016.6 |
| 20260905162149 | 20 | 196 | 0.0 | 3.2 | 0.00 | 0.00 | 0.00 | 63 | 1016.5 |
| 20260905161639 | 20 | 196 | 0.0 | 3.2 | 0.00 | 0.00 | 0.00 | 63 | 1016.3 |
| 20260905161538 | 20 | 196 | 0.0 | 3.2 | 0.00 | 0.00 | 0.00 | 63 | 1016.6 |
| 20260905161526 | 20 | 276 | 0.0 | 3.2 | 0.00 | 0.00 | 0.00 | 63 | 1016.2 |
| 20260905161517 | 20 | 194 | 0.0 | 3.2 | 0.00 | 0.00 | 0.00 | 63 | 1016.4 |
| 20260905161500 | 20 | 199 | 0.0 | 3.2 | 0.00 | 0.00 | 0.00 | 63 | 1016.5 |
| 20260905161443 | 20 | 158 | 0.0 | 1.6 | 0.00 | 0.00 | 0.00 | 63 | 1016.2 |
| 20260905161215 | 20 | 190 | 0.0 | 3.2 | 0.00 | 0.00 | 0.00 | 63 | 1016.3 |
| 20260905161200 | 20 | 190 | 0.0 | 3.2 | 0.00 | 0.00 | 0.00 | 63 | 1016.3 |
| 20260905160858 | 20 | 202 | 0.0 | 4.8 | 0.00 | 0.00 | 0.00 | 61 | 1016.1 |
| 20260905160851 | 20 | 194 | 0.0 | 3.2 | 0.00 | 0.00 | 0.00 | 63 | 1016.2 |
| 20260905160835 | 20 | 204 | 0.0 | 4.8 | 0.00 | 0.00 | 0.00 | 63 | 1016.3 |
| 20260905160820 | 20 | 192 | 0.0 | 4.8 | 0.00 | 0.00 | 0.00 | 63 | 1016.3 |
| 20260905160757 | 20 | 114 | 0.0 | 4.8 | 0.00 | 0.00 | 0.00 | 63 | 1016.3 |
| 20260905160740 | 20 | 201 | 0.0 | 4.8 | 0.00 | 0.00 | 0.00 | 62 | 1016.3 |
| 20260905160504 | 20 | 144 | 0.0 | 4.8 | 0.00 | 0.00 | 0.00 | 62 | 1016.3 |
| 20260905160240 | 20 | 190 | 0.0 | 4.8 | 0.00 | 0.00 | 0.00 | 62 | 1016.2 |
| 20260905160227 | 20 | 182 | 0.0 | 4.8 | 0.00 | 0.00 | 0.00 | 62 | 1016.2 |
| 20260905160218 | 20 | 167 | 0.0 | 4.8 | 0.00 | 0.00 | 0.00 | 62 | 1016.1 |
| 20260905160200 | 20 | 194 | 0.0 | 4.8 | 0.00 | 0.00 | 0.00 | 62 | 1016.4 |
| 20260905160145 | 20 | 194 | 0.0 | 4.8 | 0.00 | 0.00 | 0.00 | 62 | 1016.1 |
| 20260905160128 | 20 | 144 | 0.0 | 4.8 | 0.00 | 0.00 | 0.00 | 61 | 1016.2 |
| 20260905160112 | 20 | 199 | 0.0 | 4.8 | 0.00 | 0.00 | 0.00 | 61 | 1016.1 |
| 20260905155538 | 20 | 194 | 0.0 | 4.8 | 0.00 | 0.00 | 0.00 | 61 | 1016.1 |
| 20260905155514 | 20 | 170 | 0.0 | 4.8 | 0.00 | 0.00 | 0.00 | 61 | 1016.2 |
| 20260905155458 | 20 | 132 | 0.0 | 4.8 | 0.00 | 0.00 | 0.00 | 61 | 1016.2 |
| 20260905155210 | 20 | 159 | 0.0 | 4.8 | 0.00 | 0.00 | 0.00 | 60 | 1015.9 |
| 20260905155138 | 20 | 191 | 0.0 | 4.8 | 0.00 | 0.00 | 0.00 | 60 | 1016.1 |
| 20260905155038 | 20 | 58 | 1.6 | 4.8 | 0.00 | 0.00 | 0.00 | 60 | 1016.1 |
| 20260905154937 | 20 | 44 | 1.6 | 4.8 | 0.00 | 0.00 | 0.00 | 59 | 1016.1 |
| 20260905154839 | 20 | 168 | 0.0 | 4.8 | 0.00 | 0.00 | 0.00 | 60 | 1016.0 |
| 20260905154738 | 20 | 183 | 1.6 | 4.8 | 0.00 | 0.00 | 0.00 | 59 | 1016.1 |
| 20260905154712 | 20 | 159 | 3.2 | 4.8 | 0.00 | 0.00 | 0.00 | 59 | 1016.1 |
| 20260905154638 | 20 | 192 | 1.6 | 4.8 | 0.00 | 0.00 | 0.00 | 59 | 1016.0 |
| 20260905154538 | 20 | 190 | 0.0 | 4.8 | 0.00 | 0.00 | 0.00 | 59 | 1016.3 |
| 20260905154502 | 20 | 163 | 1.6 | 4.8 | 0.00 | 0.00 | 0.00 | 59 | 1016.2 |
| 20260905154446 | 20 | 209 | 1.6 | 4.8 | 0.00 | 0.00 | 0.00 | 59 | 1016.0 |
| 20260905154430 | 20 | 181 | 0.0 | 4.8 | 0.00 | 0.00 | 0.00 | 59 | 1015.7 |
| 20260905154416 | 20 | 183 | 0.0 | 4.8 | 0.00 | 0.00 | 0.00 | 59 | 1015.7 |
| 20260905154407 | 20 | 195 | 1.6 | 4.8 | 0.00 | 0.00 | 0.00 | 59 | 1016.1 |
| 20260905154351 | 20 | 194 | 0.0 | 4.8 | 0.00 | 0.00 | 0.00 | 58 | 1016.3 |
| 20260905154335 | 20 | 102 | 1.6 | 11.3 | 0.00 | 0.00 | 0.00 | 59 | 1016.3 |
| 20260905154100 | 20 | 199 | 0.0 | 11.3 | 0.00 | 0.00 | 0.00 | 59 | 1016.1 |
| 20260905154045 | 20 | 192 | 1.6 | 11.3 | 0.00 | 0.00 | 0.00 | 59 | 1016.1 |
| 20260905154036 | 20 | 187 | 1.6 | 11.3 | 0.00 | 0.00 | 0.00 | 58 | 1016.2 |
| 20260905153540 | 20 | 114 | 1.6 | 11.3 | 0.00 | 0.00 | 0.00 | 58 | 1016.0 |
| 20260905153307 | 21 | 72 | 0.0 | 11.3 | 0.00 | 0.00 | 0.00 | 58 | 1015.9 |
| 20260905153258 | 21 | 186 | 0.0 | 11.3 | 0.00 | 0.00 | 0.00 | 58 | 1016.1 |
| 20260905152938 | 21 | 158 | 1.6 | 4.8 | 0.00 | 0.00 | 0.00 | 58 | 1016.0 |
| 20260905152839 | 21 | 222 | 1.6 | 4.8 | 0.00 | 0.00 | 0.00 | 58 | 1015.9 |
| 20260905152739 | 21 | 183 | 1.6 | 4.8 | 0.00 | 0.00 | 0.00 | 57 | 1016.0 |
| 20260905152710 | 21 | 144 | 1.6 | 4.8 | 0.00 | 0.00 | 0.00 | 57 | 1016.0 |
| 20260905152639 | 21 | 195 | 0.0 | 4.8 | 0.00 | 0.00 | 0.00 | 58 | 1015.9 |
| 20260905152537 | 21 | 197 | 1.6 | 4.8 | 0.00 | 0.00 | 0.00 | 58 | 1016.2 |
| 20260905152439 | 21 | 66 | 1.6 | 4.8 | 0.00 | 0.00 | 0.00 | 58 | 1015.9 |
| 20260905152338 | 21 | 191 | 0.0 | 4.8 | 0.00 | 0.00 | 0.00 | 57 | 1015.8 |
| 20260905152238 | 21 | 204 | 0.0 | 4.8 | 0.00 | 0.00 | 0.00 | 57 | 1016.0 |
| 20260905152222 | 21 | 173 | 0.0 | 4.8 | 0.00 | 0.00 | 0.00 | 57 | 1016.0 |
| 20260905152212 | 21 | 199 | 3.2 | 4.8 | 0.00 | 0.00 | 0.00 | 57 | 1015.8 |
| 20260905152158 | 21 | 301 | 1.6 | 4.8 | 0.00 | 0.00 | 0.00 | 57 | 1016.0 |
| 20260905151915 | 21 | 125 | 1.6 | 12.9 | 0.00 | 0.00 | 0.00 | 57 | 1016.0 |
| 20260905151900 | 21 | 105 | 1.6 | 12.9 | 0.00 | 0.00 | 0.00 | 57 | 1015.8 |
| 20260905151843 | 21 | 203 | 0.0 | 12.9 | 0.00 | 0.00 | 0.00 | 57 | 1015.8 |
| 20260905151834 | 21 | 171 | 0.0 | 12.9 | 0.00 | 0.00 | 0.00 | 57 | 1016.0 |
| 20260905151817 | 21 | 189 | 0.0 | 12.9 | 0.00 | 0.00 | 0.00 | 57 | 1015.7 |
| 20260905151238 | 21 | 66 | 1.6 | 12.9 | 0.00 | 0.00 | 0.00 | 56 | 1015.9 |
| 20260905151212 | 21 | 88 | 3.2 | 12.9 | 0.00 | 0.00 | 0.00 | 57 | 1015.9 |
| 20260905151139 | 21 | 109 | 1.6 | 12.9 | 0.00 | 0.00 | 0.00 | 57 | 1016.0 |
| 20260905151108 | 21 | 67 | 1.6 | 12.9 | 0.00 | 0.00 | 0.00 | 57 | 1015.8 |
| 20260905151051 | 21 | 90 | 3.2 | 12.9 | 0.00 | 0.00 | 0.00 | 56 | 1016.0 |
| 20260905151036 | 21 | 186 | 1.6 | 4.8 | 0.00 | 0.00 | 0.00 | 56 | 1015.7 |
| 20260905151020 | 21 | 69 | 1.6 | 4.8 | 0.00 | 0.00 | 0.00 | 56 | 1015.8 |
| 20260905151005 | 21 | 147 | 3.2 | 4.8 | 0.00 | 0.00 | 0.00 | 56 | 1015.8 |
| 20260905150956 | 21 | 179 | 0.0 | 4.8 | 0.00 | 0.00 | 0.00 | 56 | 1015.9 |
| 20260905150459 | 21 | 133 | 3.2 | 4.8 | 0.00 | 0.00 | 0.00 | 56 | 1015.9 |
| 20260905150210 | 21 | 189 | 1.6 | 4.8 | 0.00 | 0.00 | 0.00 | 56 | 1015.8 |
| 20260905150139 | 21 | 181 | 3.2 | 4.8 | 0.00 | 0.00 | 0.00 | 57 | 1015.9 |
| 20260905150039 | 21 | 206 | 0.0 | 4.8 | 0.00 | 0.00 | 0.00 | 57 | 1015.9 |
| 20260905145940 | 21 | 191 | 0.0 | 4.8 | 0.00 | 0.00 | 0.00 | 57 | 1015.8 |
| 20260905145924 | 21 | 194 | 3.2 | 4.8 | 0.00 | 0.00 | 0.00 | 57 | 1015.7 |
| 20260905145909 | 21 | 200 | 0.0 | 4.8 | 0.00 | 0.00 | 0.00 | 57 | 1015.6 |
| 20260905145853 | 21 | 205 | 0.0 | 4.8 | 0.00 | 0.00 | 0.00 | 57 | 1015.6 |
| 20260905145527 | 21 | 196 | 0.0 | 4.8 | 0.00 | 0.00 | 0.00 | 58 | 1016.0 |
| 20260905145431 | 21 | 163 | 0.0 | 4.8 | 0.00 | 0.00 | 0.00 | 57 | 1016.0 |
| 20260905145404 | 21 | 98 | 1.6 | 4.8 | 0.00 | 0.00 | 0.00 | 56 | 1015.6 |
| 20260905145347 | 21 | 22 | 1.6 | 4.8 | 0.00 | 0.00 | 0.00 | 57 | 1015.8 |
| 20260905145335 | 21 | 152 | 1.6 | 4.8 | 0.00 | 0.00 | 0.00 | 57 | 1015.8 |
| 20260905145325 | 21 | 207 | 1.6 | 4.8 | 0.00 | 0.00 | 0.00 | 58 | 1015.8 |
| 20260905145048 | 21 | 270 | 3.2 | 4.8 | 0.00 | 0.00 | 0.00 | 59 | 1015.8 |
| 20260905144727 | 21 | 102 | 0.0 | 4.8 | 0.00 | 0.00 | 0.00 | 59 | 1015.6 |
| 20260905144711 | 21 | 190 | 0.0 | 4.8 | 0.00 | 0.00 | 0.00 | 59 | 1015.6 |
| 20260905144654 | 21 | 129 | 0.0 | 4.8 | 0.00 | 0.00 | 0.00 | 59 | 1015.7 |
| 20260905144638 | 21 | 163 | 1.6 | 4.8 | 0.00 | 0.00 | 0.00 | 58 | 1015.8 |
| 20260905144621 | 21 | 190 | 0.0 | 4.8 | 0.00 | 0.00 | 0.00 | 59 | 1015.7 |
| 20260905144606 | 21 | 152 | 1.6 | 4.8 | 0.00 | 0.00 | 0.00 | 59 | 1015.8 |
| 20260905144334 | 21 | 213 | 1.6 | 4.8 | 0.00 | 0.00 | 0.00 | 59 | 1015.9 |
| 20260905144324 | 21 | 183 | 0.0 | 4.8 | 0.00 | 0.00 | 0.00 | 59 | 1015.8 |
| 20260905144047 | 21 | 58 | 1.6 | 4.8 | 0.00 | 0.00 | 0.00 | 59 | 1015.8 |
| 20260905143712 | 21 | 182 | 0.0 | 4.8 | 0.00 | 0.00 | 0.00 | 59 | 1015.8 |
| 20260905143702 | 21 | 142 | 0.0 | 4.8 | 0.00 | 0.00 | 0.00 | 59 | 1015.8 |
| 20260905143646 | 21 | 155 | 0.0 | 3.2 | 0.00 | 0.00 | 0.00 | 59 | 1015.8 |
| 20260905143327 | 21 | 189 | 0.0 | 3.2 | 0.00 | 0.00 | 0.00 | 60 | 1015.5 |
| 20260905143209 | 21 | 171 | 0.0 | 3.2 | 0.00 | 0.00 | 0.00 | 61 | 1015.6 |
| 20260905143126 | 21 | 200 | 1.6 | 3.2 | 0.00 | 0.00 | 0.00 | 60 | 1015.6 |
| 20260905143026 | 21 | 192 | 0.0 | 3.2 | 0.00 | 0.00 | 0.00 | 61 | 1015.6 |
| 20260905142926 | 21 | 196 | 0.0 | 4.8 | 0.00 | 0.00 | 0.00 | 61 | 1015.6 |
| 20260905142826 | 20 | 207 | 1.6 | 4.8 | 0.00 | 0.00 | 0.00 | 60 | 1015.6 |
| 20260905142728 | 20 | 190 | 0.0 | 4.8 | 0.00 | 0.00 | 0.00 | 61 | 1015.9 |
| 20260905142712 | 20 | 245 | 0.0 | 4.8 | 0.00 | 0.00 | 0.00 | 61 | 1015.9 |
| 20260905142704 | 20 | 192 | 0.0 | 4.8 | 0.00 | 0.00 | 0.00 | 63 | 1016.0 |
| 20260905142700 | 21 | 134 | 1.6 | 4.8 | 0.00 | 0.00 | 0.00 | 62 | 1015.6 |
| 20260905142652 | 20 | 50 | 1.6 | 4.8 | 0.00 | 0.00 | 0.00 | 62 | 1015.7 |
| 20260905142637 | 20 | 164 | 1.6 | 4.8 | 0.00 | 0.00 | 0.00 | 62 | 1015.8 |
| 20260905142621 | 20 | 179 | 0.0 | 4.8 | 0.00 | 0.00 | 0.00 | 62 | 1015.7 |
| 20260905142605 | 20 | 195 | 0.0 | 4.8 | 0.00 | 0.00 | 0.00 | 63 | 1015.9 |
| 20260905142547 | 20 | 192 | 0.0 | 4.8 | 0.00 | 0.00 | 0.00 | 63 | 1016.0 |
| 20260905142101 | 20 | 187 | 0.0 | 4.8 | 0.00 | 0.00 | 0.00 | 62 | 1015.8 |
| 20260905142045 | 20 | 189 | 0.0 | 4.8 | 0.00 | 0.00 | 0.00 | 62 | 1015.6 |
| 20260905142030 | 21 | 195 | 0.0 | 4.8 | 0.00 | 0.00 | 0.00 | 62 | 1015.8 |
| 20260905141801 | 21 | 220 | 0.0 | 4.8 | 0.00 | 0.00 | 0.00 | 61 | 1015.8 |
| 20260905141746 | 21 | 196 | 0.0 | 4.8 | 0.00 | 0.00 | 0.00 | 62 | 1015.7 |
| 20260905141729 | 21 | 144 | 0.0 | 4.8 | 0.00 | 0.00 | 0.00 | 61 | 1015.7 |
| 20260905141714 | 21 | 166 | 1.6 | 4.8 | 0.00 | 0.00 | 0.00 | 61 | 1015.8 |
| 20260905141436 | 21 | 134 | 1.6 | 4.8 | 0.00 | 0.00 | 0.00 | 62 | 1015.6 |
| 20260905141114 | 21 | 200 | 3.2 | 4.8 | 0.00 | 0.00 | 0.00 | 61 | 1015.8 |
| 20260905141014 | 21 | 196 | 0.0 | 4.8 | 0.00 | 0.00 | 0.00 | 61 | 1015.7 |
| 20260905140915 | 21 | 197 | 0.0 | 4.8 | 0.00 | 0.00 | 0.00 | 60 | 1015.8 |
| 20260905140858 | 21 | 108 | 0.0 | 4.8 | 0.00 | 0.00 | 0.00 | 60 | 1015.8 |
| 20260905140833 | 21 | 187 | 0.0 | 4.8 | 0.00 | 0.00 | 0.00 | 61 | 1015.7 |
| 20260905140550 | 21 | 146 | 0.0 | 4.8 | 0.00 | 0.00 | 0.00 | 60 | 1015.9 |
| 20260905140534 | 21 | 191 | 0.0 | 4.8 | 0.00 | 0.00 | 0.00 | 61 | 1015.7 |
| 20260905140214 | 21 | 193 | 0.0 | 4.8 | 0.00 | 0.00 | 0.00 | 61 | 1015.6 |
| 20260905140115 | 21 | 176 | 0.0 | 4.8 | 0.00 | 0.00 | 0.00 | 61 | 1015.7 |
| 20260905140015 | 21 | 202 | 0.0 | 3.2 | 0.00 | 0.00 | 0.00 | 61 | 1016.1 |
| 20260905135959 | 21 | 204 | 1.6 | 3.2 | 0.00 | 0.00 | 0.00 | 61 | 1015.8 |
| 20260905135943 | 21 | 202 | 0.0 | 3.2 | 0.00 | 0.00 | 0.00 | 61 | 1015.8 |
| 20260905135714 | 21 | 273 | 1.6 | 3.2 | 0.00 | 0.00 | 0.00 | 61 | 1015.5 |
| 20260905135614 | 22 | 200 | 0.0 | 3.2 | 0.00 | 0.00 | 0.00 | 61 | 1015.6 |
| 20260905135514 | 22 | 199 | 0.0 | 3.2 | 0.00 | 0.00 | 0.00 | 61 | 1015.7 |
| 20260905135457 | 22 | 200 | 0.0 | 1.6 | 0.00 | 0.00 | 0.00 | 61 | 1015.7 |
| 20260905135441 | 21 | 124 | 0.0 | 3.2 | 0.00 | 0.00 | 0.00 | 61 | 1015.7 |
| 20260905135214 | 21 | 225 | 0.0 | 3.2 | 0.00 | 0.00 | 0.00 | 61 | 1015.9 |
| 20260905135114 | 21 | 199 | 0.0 | 3.2 | 0.00 | 0.00 | 0.00 | 62 | 1015.8 |
| 20260905135048 | 21 | 202 | 0.0 | 3.2 | 0.00 | 0.00 | 0.00 | 62 | 1015.7 |
| 20260905135032 | 21 | 205 | 0.0 | 3.2 | 0.00 | 0.00 | 0.00 | 63 | 1015.8 |
| 20260905135017 | 21 | 198 | 0.0 | 3.2 | 0.00 | 0.00 | 0.00 | 62 | 1015.8 |
| 20260905134953 | 21 | 200 | 0.0 | 3.2 | 0.00 | 0.00 | 0.00 | 62 | 1015.8 |
| 20260905134937 | 21 | 198 | 0.0 | 3.2 | 0.00 | 0.00 | 0.00 | 62 | 1015.6 |
| 20260905134701 | 21 | 177 | 0.0 | 6.4 | 0.00 | 0.00 | 0.00 | 62 | 1015.7 |
| 20260905134214 | 21 | 121 | 3.2 | 6.4 | 0.00 | 0.00 | 0.00 | 62 | 1015.6 |
| 20260905134115 | 21 | 211 | 1.6 | 6.4 | 0.00 | 0.00 | 0.00 | 62 | 1015.9 |
| 20260905134014 | 21 | 48 | 1.6 | 6.4 | 0.00 | 0.00 | 0.00 | 62 | 1015.8 |
| 20260905133952 | 21 | 199 | 1.6 | 6.4 | 0.00 | 0.00 | 0.00 | 62 | 1015.8 |
| 20260905133937 | 21 | 204 | 0.0 | 6.4 | 0.00 | 0.00 | 0.00 | 62 | 1015.8 |
| 20260905133912 | 21 | 216 | 0.0 | 6.4 | 0.00 | 0.00 | 0.00 | 62 | 1016.0 |
| 20260905133856 | 21 | 186 | 1.6 | 6.4 | 0.00 | 0.00 | 0.00 | 62 | 1015.8 |
| 20260905133315 | 21 | 188 | 0.0 | 4.8 | 0.00 | 0.00 | 0.00 | 62 | 1015.9 |
| 20260905133215 | 21 | 195 | 0.0 | 4.8 | 0.00 | 0.00 | 0.00 | 61 | 1016.1 |
| 20260905133114 | 21 | 185 | 1.6 | 4.8 | 0.00 | 0.00 | 0.00 | 60 | 1016.0 |
| 20260905133017 | 21 | 208 | 0.0 | 4.8 | 0.00 | 0.00 | 0.00 | 61 | 1015.9 |
| 20260905133000 | 21 | 187 | 0.0 | 4.8 | 0.00 | 0.00 | 0.00 | 61 | 1015.7 |
| 20260905132944 | 20 | 199 | 0.0 | 4.8 | 0.00 | 0.00 | 0.00 | 61 | 1015.9 |
| 20260905132715 | 20 | 221 | 0.0 | 4.8 | 0.00 | 0.00 | 0.00 | 62 | 1016.0 |
| 20260905132651 | 20 | 197 | 0.0 | 6.4 | 0.00 | 0.00 | 0.00 | 61 | 1015.8 |
| 20260905132635 | 20 | 167 | 0.0 | 6.4 | 0.00 | 0.00 | 0.00 | 62 | 1016.2 |
| 20260905132317 | 20 | 191 | 0.0 | 6.4 | 0.00 | 0.00 | 0.00 | 62 | 1015.7 |
| 20260905132214 | 20 | 30 | 0.0 | 6.4 | 0.00 | 0.00 | 0.00 | 62 | 1015.9 |
| 20260905132115 | 20 | 189 | 3.2 | 6.4 | 0.00 | 0.00 | 0.00 | 62 | 1015.7 |
| 20260905132018 | 20 | 224 | 3.2 | 6.4 | 0.00 | 0.00 | 0.00 | 63 | 1016.0 |
| 20260905132014 | 20 | 138 | 1.6 | 6.4 | 0.00 | 0.00 | 0.00 | 63 | 1015.8 |
| 20260905131958 | 20 | 181 | 0.0 | 6.4 | 0.00 | 0.00 | 0.00 | 62 | 1016.1 |
| 20260905131943 | 20 | 184 | 1.6 | 6.4 | 0.00 | 0.00 | 0.00 | 63 | 1016.0 |
| 20260905131924 | 20 | 224 | 3.2 | 6.4 | 0.00 | 0.00 | 0.00 | 63 | 1016.0 |
| 20260905131652 | 20 | 199 | 0.0 | 6.4 | 0.00 | 0.00 | 0.00 | 63 | 1016.0 |
| 20260905131636 | 20 | 182 | 0.0 | 6.4 | 0.00 | 0.00 | 0.00 | 63 | 1016.2 |
| 20260905131314 | 20 | 211 | 1.6 | 6.4 | 0.00 | 0.00 | 0.00 | 62 | 1015.9 |
| 20260905131250 | 20 | 47 | 1.6 | 4.8 | 0.00 | 0.00 | 0.00 | 62 | 1015.9 |
| 20260905131234 | 20 | 221 | 1.6 | 4.8 | 0.00 | 0.00 | 0.00 | 62 | 1015.7 |
| 20260905130914 | 20 | 281 | 0.0 | 6.4 | 0.00 | 0.00 | 0.00 | 62 | 1016.0 |
| 20260905130814 | 20 | 195 | 0.0 | 6.4 | 0.00 | 0.00 | 0.00 | 62 | 1015.9 |
| 20260905130714 | 20 | 192 | 0.0 | 6.4 | 0.00 | 0.00 | 0.00 | 62 | 1016.1 |
| 20260905130614 | 20 | 110 | 0.0 | 6.4 | 0.00 | 0.00 | 0.00 | 62 | 1015.9 |
| 20260905130515 | 20 | 55 | 3.2 | 6.4 | 0.00 | 0.00 | 0.00 | 62 | 1016.2 |
| 20260905130414 | 20 | 162 | 1.6 | 6.4 | 0.00 | 0.00 | 0.00 | 61 | 1016.0 |
| 20260905130314 | 20 | 197 | 0.0 | 6.4 | 0.00 | 0.00 | 0.00 | 61 | 1016.3 |
| 20260905130215 | 20 | 190 | 0.0 | 6.4 | 0.00 | 0.00 | 0.00 | 61 | 1015.7 |
| 20260905130114 | 20 | 182 | 4.8 | 6.4 | 0.00 | 0.00 | 0.00 | 61 | 1016.1 |
| 20260905130014 | 20 | 186 | 1.6 | 6.4 | 0.00 | 0.00 | 0.00 | 61 | 1016.1 |
| 20260905125914 | 20 | 206 | 1.6 | 6.4 | 0.00 | 0.00 | 0.00 | 61 | 1016.1 |
| 20260905125816 | 21 | 255 | 3.2 | 6.4 | 0.00 | 0.00 | 0.00 | 61 | 1016.0 |
| 20260905125714 | 21 | 133 | 1.6 | 6.4 | 0.00 | 0.00 | 0.00 | 61 | 1016.2 |
| 20260905125614 | 21 | 193 | 3.2 | 4.8 | 0.00 | 0.00 | 0.00 | 62 | 1015.9 |
| 20260905125550 | 21 | 242 | 0.0 | 4.8 | 0.00 | 0.00 | 0.00 | 62 | 1016.0 |
| 20260905125533 | 21 | 177 | 0.0 | 4.8 | 0.00 | 0.00 | 0.00 | 62 | 1016.2 |
| 20260905125517 | 21 | 333 | 3.2 | 4.8 | 0.00 | 0.00 | 0.00 | 62 | 1016.1 |
| 20260905125250 | 21 | 167 | 0.0 | 4.8 | 0.00 | 0.00 | 0.00 | 62 | 1015.7 |
| 20260905125235 | 21 | 187 | 1.6 | 4.8 | 0.00 | 0.00 | 0.00 | 62 | 1015.9 |
| 20260905124915 | 21 | 178 | 0.0 | 4.8 | 0.00 | 0.00 | 0.00 | 64 | 1016.1 |
| 20260905124815 | 20 | 200 | 0.0 | 4.8 | 0.00 | 0.00 | 0.00 | 64 | 1016.1 |
| 20260905124714 | 20 | 190 | 0.0 | 4.8 | 0.00 | 0.00 | 0.00 | 64 | 1016.0 |
| 20260905124615 | 20 | 192 | 0.0 | 6.4 | 0.00 | 0.00 | 0.00 | 64 | 1016.1 |
| 20260905124550 | 20 | 172 | 0.0 | 6.4 | 0.00 | 0.00 | 0.00 | 64 | 1016.0 |
| 20260905124535 | 21 | 191 | 0.0 | 6.4 | 0.00 | 0.00 | 0.00 | 64 | 1016.1 |
| 20260905124214 | 21 | 194 | 1.6 | 6.4 | 0.00 | 0.00 | 0.00 | 65 | 1016.1 |
| 20260905124151 | 20 | 184 | 1.6 | 6.4 | 0.00 | 0.00 | 0.00 | 64 | 1015.9 |
| 20260905124135 | 20 | 197 | 0.0 | 6.4 | 0.00 | 0.00 | 0.00 | 64 | 1016.1 |
| 20260905123814 | 20 | 204 | 1.6 | 6.4 | 0.00 | 0.00 | 0.00 | 64 | 1015.9 |
| 20260905123715 | 20 | 192 | 1.6 | 6.4 | 0.00 | 0.00 | 0.00 | 64 | 1016.0 |
| 20260905123614 | 20 | 206 | 3.2 | 4.8 | 0.00 | 0.00 | 0.00 | 64 | 1015.8 |
| 20260905123601 | 20 | 211 | 1.6 | 4.8 | 0.00 | 0.00 | 0.00 | 64 | 1016.1 |
| 20260905123552 | 20 | 196 | 0.0 | 4.8 | 0.00 | 0.00 | 0.00 | 65 | 1016.1 |
| 20260905123535 | 20 | 105 | 1.6 | 4.8 | 0.00 | 0.00 | 0.00 | 64 | 1016.0 |
| 20260905123519 | 20 | 204 | 0.0 | 4.8 | 0.00 | 0.00 | 0.00 | 64 | 1016.2 |
| 20260905123500 | 20 | 211 | 1.6 | 4.8 | 0.00 | 0.00 | 0.00 | 64 | 1016.1 |
| 20260905123235 | 20 | 156 | 3.2 | 4.8 | 0.00 | 0.00 | 0.00 | 64 | 1016.2 |
| 20260905122914 | 21 | 176 | 0.0 | 4.8 | 0.00 | 0.00 | 0.00 | 64 | 1015.9 |
| 20260905122815 | 21 | 57 | 0.0 | 4.8 | 0.00 | 0.00 | 0.00 | 63 | 1016.1 |
| 20260905122714 | 21 | 197 | 0.0 | 4.8 | 0.00 | 0.00 | 0.00 | 63 | 1016.2 |
| 20260905122614 | 21 | 204 | 1.6 | 4.8 | 0.00 | 0.00 | 0.00 | 63 | 1016.2 |
| 20260905122515 | 21 | 192 | 3.2 | 4.8 | 0.00 | 0.00 | 0.00 | 63 | 1016.2 |
| 20260905122414 | 21 | 50 | 1.6 | 4.8 | 0.00 | 0.00 | 0.00 | 64 | 1016.4 |
| 20260905122314 | 21 | 200 | 0.0 | 4.8 | 0.00 | 0.00 | 0.00 | 63 | 1016.0 |
| 20260905122214 | 21 | 179 | 1.6 | 4.8 | 0.00 | 0.00 | 0.00 | 62 | 1016.0 |
| 20260905122115 | 21 | 230 | 0.0 | 4.8 | 0.00 | 0.00 | 0.00 | 63 | 1016.1 |
| 20260905122014 | 21 | 187 | 1.6 | 6.4 | 0.00 | 0.00 | 0.00 | 62 | 1016.1 |
| 20260905121914 | 21 | 193 | 0.0 | 6.4 | 0.00 | 0.00 | 0.00 | 62 | 1016.2 |
| 20260905121814 | 21 | 190 | 0.0 | 6.4 | 0.00 | 0.00 | 0.00 | 63 | 1016.0 |
| 20260905121715 | 21 | 219 | 1.6 | 9.7 | 0.00 | 0.00 | 0.00 | 63 | 1016.1 |
| 20260905121614 | 21 | 145 | 1.6 | 9.7 | 0.00 | 0.00 | 0.00 | 63 | 1016.2 |
| 20260905121514 | 21 | 208 | 1.6 | 9.7 | 0.00 | 0.00 | 0.00 | 63 | 1016.4 |
| 20260905121457 | 21 | 180 | 0.0 | 9.7 | 0.00 | 0.00 | 0.00 | 63 | 1016.4 |
| 20260905121441 | 21 | 91 | 0.0 | 9.7 | 0.00 | 0.00 | 0.00 | 63 | 1016.2 |
| 20260905121215 | 21 | 213 | 3.2 | 9.7 | 0.00 | 0.00 | 0.00 | 62 | 1016.2 |
| 20260905121114 | 21 | 71 | 3.2 | 9.7 | 0.00 | 0.00 | 0.00 | 63 | 1016.2 |
| 20260905121014 | 21 | 150 | 1.6 | 9.7 | 0.00 | 0.00 | 0.00 | 63 | 1016.5 |
| 20260905120914 | 21 | 202 | 1.6 | 9.7 | 0.00 | 0.00 | 0.00 | 63 | 1016.2 |
| 20260905120814 | 21 | 202 | 0.0 | 6.4 | 0.00 | 0.00 | 0.00 | 63 | 1016.2 |
| 20260905120714 | 21 | 84 | 1.6 | 6.4 | 0.00 | 0.00 | 0.00 | 63 | 1016.4 |
| 20260905120614 | 21 | 196 | 0.0 | 6.4 | 0.00 | 0.00 | 0.00 | 63 | 1016.1 |
| 20260905120514 | 21 | 138 | 1.6 | 6.4 | 0.00 | 0.00 | 0.00 | 63 | 1016.0 |
| 20260905120414 | 21 | 232 | 1.6 | 6.4 | 0.00 | 0.00 | 0.00 | 62 | 1016.1 |
| 20260905120347 | 21 | 193 | 0.0 | 6.4 | 0.00 | 0.00 | 0.00 | 63 | 1016.1 |
| 20260905120325 | 21 | 202 | 3.2 | 6.4 | 0.00 | 0.00 | 0.00 | 62 | 1016.1 |
| 20260905120309 | 21 | 187 | 1.6 | 6.4 | 0.00 | 0.00 | 0.00 | 62 | 1016.3 |
| 20260905120253 | 21 | 186 | 0.0 | 6.4 | 0.00 | 0.00 | 0.00 | 62 | 1016.2 |
| 20260905120236 | 21 | 134 | 1.6 | 4.8 | 0.00 | 0.00 | 0.00 | 63 | 1016.1 |
| 20260905120219 | 21 | 194 | 1.6 | 4.8 | 0.00 | 0.00 | 0.00 | 62 | 1016.3 |
| 20260905115950 | 21 | 202 | 0.0 | 4.8 | 0.00 | 0.00 | 0.00 | 61 | 1016.3 |
| 20260905115411 | 22 | 191 | 1.6 | 4.8 | 0.00 | 0.00 | 0.00 | 60 | 1016.1 |
| 20260905115310 | 22 | 57 | 1.6 | 4.8 | 0.00 | 0.00 | 0.00 | 60 | 1016.2 |
| 20260905115210 | 22 | 210 | 1.6 | 4.8 | 0.00 | 0.00 | 0.00 | 60 | 1016.1 |
| 20260905115110 | 22 | 196 | 0.0 | 4.8 | 0.00 | 0.00 | 0.00 | 61 | 1016.0 |
| 20260905115010 | 22 | 358 | 3.2 | 4.8 | 0.00 | 0.00 | 0.00 | 61 | 1016.4 |
| 20260905114911 | 22 | 198 | 0.0 | 6.4 | 0.00 | 0.00 | 0.00 | 61 | 1016.1 |
| 20260905114816 | 22 | 201 | 0.0 | 6.4 | 0.00 | 0.00 | 0.00 | 61 | 1016.2 |
| 20260905114753 | 22 | 211 | 0.0 | 6.4 | 0.00 | 0.00 | 0.00 | 61 | 1016.1 |
| 20260905114737 | 22 | 204 | 0.0 | 6.4 | 0.00 | 0.00 | 0.00 | 62 | 1016.3 |
| 20260905114720 | 22 | 257 | 0.0 | 6.4 | 0.00 | 0.00 | 0.00 | 62 | 1016.0 |
| 20260905114441 | 21 | 207 | 0.0 | 6.4 | 0.00 | 0.00 | 0.00 | 62 | 1016.3 |
| 20260905114211 | 21 | 215 | 0.0 | 6.4 | 0.00 | 0.00 | 0.00 | 62 | 1016.2 |
| 20260905114110 | 21 | 182 | 0.0 | 6.4 | 0.00 | 0.00 | 0.00 | 63 | 1016.3 |
| 20260905114010 | 21 | 204 | 1.6 | 6.4 | 0.00 | 0.00 | 0.00 | 62 | 1016.2 |
| 20260905113910 | 21 | 196 | 1.6 | 6.4 | 0.00 | 0.00 | 0.00 | 63 | 1016.2 |
| 20260905113810 | 21 | 206 | 0.0 | 6.4 | 0.00 | 0.00 | 0.00 | 62 | 1016.2 |
| 20260905113710 | 21 | 120 | 3.2 | 6.4 | 0.00 | 0.00 | 0.00 | 64 | 1016.3 |
| 20260905113610 | 21 | 215 | 0.0 | 6.4 | 0.00 | 0.00 | 0.00 | 63 | 1016.1 |
| 20260905113513 | 21 | 199 | 0.0 | 6.4 | 0.00 | 0.00 | 0.00 | 64 | 1016.1 |
| 20260905113502 | 20 | 194 | 0.0 | 6.4 | 0.00 | 0.00 | 0.00 | 66 | 1016.4 |
| 20260905113453 | 20 | 10 | 3.2 | 6.4 | 0.00 | 0.00 | 0.00 | 64 | 1016.3 |
| 20260905113437 | 20 | 222 | 0.0 | 6.4 | 0.00 | 0.00 | 0.00 | 65 | 1016.2 |
| 20260905113420 | 20 | 194 | 0.0 | 6.4 | 0.00 | 0.00 | 0.00 | 66 | 1016.4 |
| 20260905113111 | 20 | 199 | 0.0 | 6.4 | 0.00 | 0.00 | 0.00 | 67 | 1016.4 |
| 20260905113010 | 20 | 51 | 3.2 | 6.4 | 0.00 | 0.00 | 0.00 | 66 | 1016.2 |
| 20260905112948 | 20 | 192 | 0.0 | 6.4 | 0.00 | 0.00 | 0.00 | 66 | 1016.2 |
| 20260905112932 | 20 | 207 | 0.0 | 6.4 | 0.00 | 0.00 | 0.00 | 66 | 1016.3 |
| 20260905112907 | 20 | 193 | 0.0 | 6.4 | 0.00 | 0.00 | 0.00 | 67 | 1016.2 |
| 20260905112851 | 20 | 180 | 0.0 | 6.4 | 0.00 | 0.00 | 0.00 | 67 | 1016.3 |
| 20260905112353 | 20 | 209 | 1.6 | 4.8 | 0.00 | 0.00 | 0.00 | 66 | 1016.3 |
| 20260905112330 | 20 | 199 | 3.2 | 4.8 | 0.00 | 0.00 | 0.00 | 65 | 1016.1 |
| 20260905112010 | 20 | 201 | 0.0 | 4.8 | 0.00 | 0.00 | 0.00 | 66 | 1016.3 |
| 20260905111911 | 20 | 155 | 0.0 | 4.8 | 0.00 | 0.00 | 0.00 | 66 | 1016.3 |
| 20260905111855 | 21 | 167 | 0.0 | 3.2 | 0.00 | 0.00 | 0.00 | 62 | 1016.0 |
| 20260905111846 | 20 | 171 | 1.6 | 4.8 | 0.00 | 0.00 | 0.00 | 66 | 1016.1 |
| 20260905111822 | 20 | 200 | 0.0 | 4.8 | 0.00 | 0.00 | 0.00 | 66 | 1016.2 |
| 20260905111807 | 21 | 204 | 0.0 | 4.8 | 0.00 | 0.00 | 0.00 | 66 | 1016.4 |
| 20260905111751 | 21 | 170 | 0.0 | 4.8 | 0.00 | 0.00 | 0.00 | 65 | 1016.3 |
| 20260905111735 | 21 | 209 | 1.6 | 4.8 | 0.00 | 0.00 | 0.00 | 65 | 1016.1 |
| 20260905111248 | 21 | 190 | 0.0 | 3.2 | 0.00 | 0.00 | 0.00 | 64 | 1016.1 |
| 20260905111232 | 21 | 189 | 0.0 | 3.2 | 0.00 | 0.00 | 0.00 | 63 | 1015.9 |
| 20260905110955 | 21 | 232 | 3.2 | 3.2 | 0.00 | 0.00 | 0.00 | 63 | 1016.1 |
| 20260905110938 | 21 | 201 | 0.0 | 3.2 | 0.00 | 0.00 | 0.00 | 62 | 1016.3 |
| 20260905110918 | 21 | 167 | 0.0 | 3.2 | 0.00 | 0.00 | 0.00 | 62 | 1016.0 |
| 20260905110609 | 21 | 210 | 1.6 | 3.2 | 0.00 | 0.00 | 0.00 | 64 | 1016.3 |
| 20260905110509 | 21 | 199 | 1.6 | 3.2 | 0.00 | 0.00 | 0.00 | 64 | 1016.2 |
| 20260905110410 | 21 | 196 | 0.0 | 6.4 | 0.00 | 0.00 | 0.00 | 64 | 1016.2 |
| 20260905110351 | 21 | 194 | 1.6 | 6.4 | 0.00 | 0.00 | 0.00 | 64 | 1016.1 |
| 20260905110329 | 21 | 203 | 0.0 | 6.4 | 0.00 | 0.00 | 0.00 | 65 | 1016.0 |
| 20260905110044 | 20 | 297 | 1.6 | 6.4 | 0.00 | 0.00 | 0.00 | 65 | 1016.1 |
| 20260905110028 | 20 | 209 | 0.0 | 6.4 | 0.00 | 0.00 | 0.00 | 65 | 1016.3 |
| 20260905105709 | 20 | 183 | 0.0 | 6.4 | 0.00 | 0.00 | 0.00 | 64 | 1016.2 |
| 20260905105609 | 20 | 339 | 0.0 | 6.4 | 0.00 | 0.00 | 0.00 | 65 | 1016.2 |
| 20260905105536 | 20 | 198 | 0.0 | 4.8 | 0.00 | 0.00 | 0.00 | 66 | 1016.1 |
| 20260905105527 | 21 | 207 | 3.2 | 6.4 | 0.00 | 0.00 | 0.00 | 65 | 1016.4 |
| 20260905105511 | 21 | 186 | 0.0 | 6.4 | 0.00 | 0.00 | 0.00 | 66 | 1016.1 |
| 20260905105454 | 20 | 131 | 0.0 | 6.4 | 0.00 | 0.00 | 0.00 | 67 | 1016.2 |
| 20260905105431 | 20 | 200 | 0.0 | 6.4 | 0.00 | 0.00 | 0.00 | 67 | 1016.1 |
| 20260905105155 | 20 | 181 | 0.0 | 6.4 | 0.00 | 0.00 | 0.00 | 68 | 1015.9 |
| 20260905105140 | 20 | 162 | 1.6 | 6.4 | 0.00 | 0.00 | 0.00 | 68 | 1016.3 |
| 20260905104856 | 20 | 198 | 0.0 | 6.4 | 0.00 | 0.00 | 0.00 | 68 | 1016.3 |
| 20260905104840 | 20 | 214 | 1.6 | 6.4 | 0.00 | 0.00 | 0.00 | 68 | 1016.3 |
| 20260905104824 | 20 | 16 | 4.8 | 6.4 | 0.00 | 0.00 | 0.00 | 67 | 1016.0 |
| 20260905104808 | 20 | 116 | 1.6 | 4.8 | 0.00 | 0.00 | 0.00 | 66 | 1016.1 |
| 20260905104753 | 20 | 204 | 0.0 | 4.8 | 0.00 | 0.00 | 0.00 | 66 | 1016.1 |
| 20260905104306 | 20 | 169 | 0.0 | 6.4 | 0.00 | 0.00 | 0.00 | 66 | 1016.3 |
| 20260905104250 | 20 | 182 | 3.2 | 6.4 | 0.00 | 0.00 | 0.00 | 66 | 1016.4 |
| 20260905103745 | 20 | 192 | 0.0 | 6.4 | 0.00 | 0.00 | 0.00 | 67 | 1016.2 |
| 20260905103729 | 20 | 278 | 3.2 | 6.4 | 0.00 | 0.00 | 0.00 | 68 | 1016.4 |
| 20260905103409 | 20 | 181 | 1.6 | 6.4 | 0.00 | 0.00 | 0.00 | 68 | 1016.2 |
| 20260905103311 | 19 | 194 | 0.0 | 6.4 | 0.00 | 0.00 | 0.00 | 69 | 1016.1 |
| 20260905103246 | 19 | 39 | 1.6 | 6.4 | 0.00 | 0.00 | 0.00 | 69 | 1016.1 |
| 20260905103230 | 19 | 54 | 0.0 | 4.8 | 0.00 | 0.00 | 0.00 | 69 | 1016.2 |
| 20260905102953 | 19 | 124 | 3.2 | 9.7 | 0.00 | 0.00 | 0.00 | 69 | 1016.1 |
| 20260905102937 | 19 | 198 | 0.0 | 9.7 | 0.00 | 0.00 | 0.00 | 69 | 1016.0 |
| 20260905102709 | 18 | 194 | 0.0 | 9.7 | 0.00 | 0.00 | 0.00 | 69 | 1016.0 |
| 20260905102610 | 18 | 182 | 0.0 | 9.7 | 0.00 | 0.00 | 0.00 | 69 | 1016.1 |
| 20260905102510 | 18 | 160 | 0.0 | 9.7 | 0.00 | 0.00 | 0.00 | 69 | 1016.2 |
| 20260905102410 | 18 | 188 | 0.0 | 9.7 | 0.00 | 0.00 | 0.00 | 69 | 1016.3 |
| 20260905102358 | 19 | 69 | 3.2 | 6.4 | 0.00 | 0.00 | 0.00 | 70 | 1016.2 |
| 20260905102352 | 20 | 80 | 0.0 | 6.4 | 0.00 | 0.00 | 0.00 | 68 | 1016.1 |
| 20260905102347 | 21 | 184 | 3.2 | 6.4 | 0.00 | 0.00 | 0.00 | 66 | 1015.9 |
| 20260905102343 | 21 | 124 | 0.0 | 29.0 | 0.00 | 0.00 | 0.00 | 67 | 1016.3 |
| 20260905102335 | 18 | 283 | 0.0 | 9.7 | 0.00 | 0.00 | 0.00 | 68 | 1016.0 |
| 20260905102312 | 18 | 12 | 1.6 | 9.7 | 0.00 | 0.00 | 0.00 | 68 | 1016.2 |
| 20260905102257 | 18 | 50 | 1.6 | 6.4 | 0.00 | 0.00 | 0.00 | 68 | 1016.2 |
| 20260905102241 | 19 | 183 | 0.0 | 6.4 | 0.00 | 0.00 | 0.00 | 69 | 1016.2 |
| 20260905102224 | 19 | 204 | 3.2 | 4.8 | 0.00 | 0.00 | 0.00 | 70 | 1016.4 |
| 20260905102208 | 19 | 188 | 0.0 | 3.2 | 0.00 | 0.00 | 0.00 | 71 | 1016.1 |
| 20260905102143 | 19 | 193 | 0.0 | 4.8 | 0.00 | 0.00 | 0.00 | 71 | 1016.2 |
| 20260905102127 | 19 | 201 | 0.0 | 4.8 | 0.00 | 0.00 | 0.00 | 71 | 1016.1 |
| 20260905102111 | 18 | 108 | 0.0 | 4.8 | 0.00 | 0.00 | 0.00 | 71 | 1016.2 |
| 20260905101609 | 18 | 114 | 0.0 | 4.8 | 0.00 | 0.00 | 0.00 | 72 | 1016.3 |
| 20260905101113 | 18 | 201 | 1.6 | 4.8 | 0.00 | 0.00 | 0.00 | 71 | 1016.2 |
| 20260905101057 | 18 | 194 | 0.0 | 4.8 | 0.00 | 0.00 | 0.00 | 71 | 1016.1 |
| 20260905101033 | 18 | 202 | 0.0 | 6.4 | 0.00 | 0.00 | 0.00 | 71 | 1016.2 |
| 20260905101016 | 18 | 194 | 0.0 | 6.4 | 0.00 | 0.00 | 0.00 | 71 | 1016.0 |
| 20260905101000 | 18 | 207 | 3.2 | 6.4 | 0.00 | 0.00 | 0.00 | 71 | 1016.1 |
| 20260905100944 | 18 | 200 | 3.2 | 6.4 | 0.00 | 0.00 | 0.00 | 71 | 1016.2 |
| 20260905100928 | 19 | 205 | 0.0 | 6.4 | 0.00 | 0.00 | 0.00 | 71 | 1015.8 |
| 20260905100911 | 19 | 69 | 3.2 | 6.4 | 0.00 | 0.00 | 0.00 | 70 | 1016.2 |
| 20260905100645 | 19 | 192 | 0.0 | 6.4 | 0.00 | 0.00 | 0.00 | 70 | 1015.9 |
| 20260905100409 | 19 | 182 | 1.6 | 6.4 | 0.00 | 0.00 | 0.00 | 70 | 1016.1 |
| 20260905095920 | 20 | 192 | 0.0 | 6.4 | 0.00 | 0.00 | 0.00 | 69 | 1016.0 |
| 20260905095903 | 20 | 54 | 3.2 | 6.4 | 0.00 | 0.00 | 0.00 | 69 | 1015.9 |
| 20260905095406 | 20 | 182 | 0.0 | 14.5 | 0.00 | 0.00 | 0.00 | 69 | 1016.2 |
| 20260905095343 | 20 | 191 | 0.0 | 14.5 | 0.00 | 0.00 | 0.00 | 68 | 1016.1 |
| 20260905095326 | 20 | 190 | 0.0 | 14.5 | 0.00 | 0.00 | 0.00 | 68 | 1016.2 |
| 20260905095310 | 20 | 224 | 1.6 | 14.5 | 0.00 | 0.00 | 0.00 | 68 | 1016.1 |
| 20260905095255 | 20 | 352 | 1.6 | 14.5 | 0.00 | 0.00 | 0.00 | 67 | 1016.0 |
| 20260905095010 | 20 | 245 | 1.6 | 14.5 | 0.00 | 0.00 | 0.00 | 67 | 1016.1 |
| 20260905094953 | 20 | 245 | 0.0 | 14.5 | 0.00 | 0.00 | 0.00 | 67 | 1015.9 |
| 20260905094937 | 20 | 6 | 1.6 | 6.4 | 0.00 | 0.00 | 0.00 | 67 | 1016.0 |
| 20260905094921 | 20 | 248 | 1.6 | 6.4 | 0.00 | 0.00 | 0.00 | 67 | 1015.9 |
| 20260905094642 | 20 | 80 | 0.0 | 6.4 | 0.00 | 0.00 | 0.00 | 68 | 1016.1 |
| 20260905094416 | 20 | 277 | 3.2 | 6.4 | 0.00 | 0.00 | 0.00 | 68 | 1015.6 |
| 20260905094400 | 20 | 178 | 1.6 | 6.4 | 0.00 | 0.00 | 0.00 | 68 | 1016.3 |
| 20260905094344 | 21 | 112 | 1.6 | 6.4 | 0.00 | 0.00 | 0.00 | 67 | 1015.8 |
| 20260905094328 | 21 | 185 | 3.2 | 6.4 | 0.00 | 0.00 | 0.00 | 66 | 1016.1 |
| 20260905094309 | 21 | 184 | 3.2 | 6.4 | 0.00 | 0.00 | 0.00 | 66 | 1015.9 |
| 20260905094043 | 21 | 204 | 0.0 | 6.4 | 0.00 | 0.00 | 0.00 | 66 | 1015.9 |
| 20260905094027 | 21 | 215 | 1.6 | 29.0 | 0.00 | 0.00 | 0.00 | 66 | 1016.1 |
| 20260905093320 | 21 | 231 | 1.6 | 29.0 | 0.00 | 0.00 | 0.00 | 65 | 1016.1 |
| 20260905093303 | 21 | 208 | 1.6 | 29.0 | 0.00 | 0.00 | 0.00 | 65 | 1015.8 |
| 20260905093248 | 21 | 330 | 0.0 | 29.0 | 0.00 | 0.00 | 0.00 | 65 | 1016.1 |
| 20260905093232 | 21 | 228 | 1.6 | 29.0 | 0.00 | 0.00 | 0.00 | 66 | 1016.3 |
| 20260905093216 | 21 | 183 | 1.6 | 29.0 | 0.00 | 0.00 | 0.00 | 66 | 1016.1 |
| 20260905093157 | 21 | 124 | 0.0 | 29.0 | 0.00 | 0.00 | 0.00 | 67 | 1016.3 |
| 20260905092932 | 21 | 213 | 14.5 | 29.0 | 0.00 | 0.00 | 0.00 | 66 | 1015.8 |
| 20260905092916 | 21 | 325 | 3.2 | 11.3 | 0.00 | 0.00 | 0.00 | 68 | 1016.1 |
| 20260905092209 | 21 | 208 | 1.6 | 11.3 | 0.00 | 0.00 | 0.00 | 69 | 1016.0 |
| 20260905092108 | 20 | 188 | 1.6 | 11.3 | 0.00 | 0.00 | 0.00 | 70 | 1016.3 |
| 20260905092009 | 20 | 163 | 1.6 | 11.3 | 0.00 | 0.00 | 0.00 | 70 | 1016.3 |
| 20260905091909 | 20 | 176 | 0.0 | 11.3 | 0.00 | 0.00 | 0.00 | 69 | 1016.1 |
| 20260905091809 | 21 | 175 | 0.0 | 11.3 | 0.00 | 0.00 | 0.00 | 69 | 1016.2 |
| 20260905091710 | 21 | 170 | 3.2 | 11.3 | 0.00 | 0.00 | 0.00 | 68 | 1016.1 |
| 20260905091611 | 21 | 221 | 1.6 | 11.3 | 0.00 | 0.00 | 0.00 | 68 | 1016.1 |
| 20260905091509 | 21 | 175 | 0.0 | 11.3 | 0.00 | 0.00 | 0.00 | 67 | 1016.2 |
| 20260905091409 | 21 | 175 | 3.2 | 11.3 | 0.00 | 0.00 | 0.00 | 67 | 1016.0 |
| 20260905091308 | 21 | 339 | 1.6 | 11.3 | 0.00 | 0.00 | 0.00 | 68 | 1016.4 |
| 20260905091209 | 21 | 191 | 1.6 | 11.3 | 0.00 | 0.00 | 0.00 | 68 | 1016.3 |
| 20260905091109 | 21 | 155 | 1.6 | 11.3 | 0.00 | 0.00 | 0.00 | 68 | 1016.2 |
| 20260905091009 | 21 | 190 | 1.6 | 11.3 | 0.00 | 0.00 | 0.00 | 69 | 1015.9 |
| 20260905090909 | 21 | 196 | 1.6 | 11.3 | 0.00 | 0.00 | 0.00 | 69 | 1016.0 |
| 20260905090816 | 19 | 201 | 3.2 | 6.4 | 0.00 | 0.00 | 0.00 | 73 | 1016.3 |
| 20260905090810 | 21 | 272 | 3.2 | 11.3 | 0.00 | 0.00 | 0.00 | 69 | 1016.1 |
| 20260905090746 | 20 | 196 | 1.6 | 6.4 | 0.00 | 0.00 | 0.00 | 70 | 1015.9 |
| 20260905090730 | 20 | 226 | 0.0 | 6.4 | 0.00 | 0.00 | 0.00 | 71 | 1015.9 |
| 20260905090453 | 20 | 191 | 1.6 | 6.4 | 0.00 | 0.00 | 0.00 | 72 | 1016.1 |
| 20260905090437 | 20 | 199 | 0.0 | 6.4 | 0.00 | 0.00 | 0.00 | 72 | 1016.3 |
| 20260905090419 | 19 | 201 | 3.2 | 6.4 | 0.00 | 0.00 | 0.00 | 73 | 1016.3 |
| 20260905090109 | 19 | 205 | 1.6 | 6.4 | 0.00 | 0.00 | 0.00 | 73 | 1016.3 |
| 20260905090009 | 19 | 200 | 0.0 | 6.4 | 0.00 | 0.00 | 0.00 | 73 | 1016.1 |
| 20260905085909 | 19 | 167 | 1.6 | 6.4 | 0.00 | 0.00 | 0.00 | 73 | 1016.1 |
| 20260905085809 | 19 | 268 | 3.2 | 6.4 | 0.00 | 0.00 | 0.00 | 73 | 1016.2 |
| 20260905085709 | 19 | 200 | 0.0 | 6.4 | 0.00 | 0.00 | 0.00 | 73 | 1016.2 |
| 20260905085610 | 19 | 198 | 0.0 | 6.4 | 0.00 | 0.00 | 0.00 | 73 | 1015.8 |
| 20260905085541 | 19 | 158 | 0.0 | 6.4 | 0.00 | 0.00 | 0.00 | 73 | 1016.1 |
| 20260905085526 | 19 | 180 | 0.0 | 6.4 | 0.00 | 0.00 | 0.00 | 74 | 1016.1 |
| 20260905085509 | 18 | 177 | 0.0 | 6.4 | 0.00 | 0.00 | 0.00 | 75 | 1016.1 |
| 20260905085242 | 18 | 209 | 1.6 | 6.4 | 0.00 | 0.00 | 0.00 | 75 | 1015.8 |
| 20260905085226 | 19 | 85 | 0.0 | 6.4 | 0.00 | 0.00 | 0.00 | 75 | 1016.5 |
| 20260905085210 | 19 | 194 | 0.0 | 3.2 | 0.00 | 0.00 | 0.00 | 75 | 1016.0 |
| 20260905084935 | 19 | 192 | 0.0 | 1.6 | 0.00 | 0.00 | 0.00 | 76 | 1016.2 |
| 20260905084708 | 19 | 181 | 1.6 | 1.6 | 0.00 | 0.00 | 0.00 | 76 | 1016.0 |
| 20260905084251 | 19 | 198 | 1.6 | 6.4 | 0.00 | 0.00 | 0.00 | 76 | 1016.2 |
| 20260905084152 | 19 | 201 | 0.0 | 6.4 | 0.00 | 0.00 | 0.00 | 77 | 1015.9 |
| 20260905084051 | 19 | 178 | 0.0 | 6.4 | 0.00 | 0.00 | 0.00 | 77 | 1015.9 |
| 20260905083952 | 19 | 181 | 0.0 | 6.4 | 0.00 | 0.00 | 0.00 | 77 | 1015.9 |
| 20260905083851 | 19 | 191 | 0.0 | 6.4 | 0.00 | 0.00 | 0.00 | 78 | 1015.7 |
| 20260905083751 | 19 | 212 | 3.2 | 6.4 | 0.00 | 0.00 | 0.00 | 77 | 1016.0 |
| 20260905083651 | 19 | 203 | 0.0 | 4.8 | 0.00 | 0.00 | 0.00 | 77 | 1015.9 |
| 20260905083552 | 19 | 176 | 0.0 | 4.8 | 0.00 | 0.00 | 0.00 | 77 | 1015.7 |
| 20260905083451 | 20 | 202 | 0.0 | 6.4 | 0.00 | 0.00 | 0.00 | 77 | 1015.9 |
| 20260905083352 | 20 | 195 | 0.0 | 6.4 | 0.00 | 0.00 | 0.00 | 77 | 1016.0 |
| 20260905083342 | 20 | 200 | 0.0 | 9.7 | 0.00 | 0.00 | 0.00 | 75 | 1016.0 |
| 20260905083326 | 20 | 249 | 3.2 | 6.4 | 0.00 | 0.00 | 0.00 | 77 | 1015.6 |
| 20260905083309 | 20 | 191 | 0.0 | 9.7 | 0.00 | 0.00 | 0.00 | 77 | 1015.6 |
| 20260905083254 | 20 | 147 | 0.0 | 9.7 | 0.00 | 0.00 | 0.00 | 76 | 1015.5 |
| 20260905083018 | 20 | 204 | 0.0 | 9.7 | 0.00 | 0.00 | 0.00 | 75 | 1016.0 |
| 20260905083001 | 20 | 200 | 0.0 | 9.7 | 0.00 | 0.00 | 0.00 | 75 | 1016.0 |
| 20260905082651 | 20 | 183 | 0.0 | 9.7 | 0.00 | 0.00 | 0.00 | 75 | 1015.8 |
| 20260905082626 | 20 | 223 | 0.0 | 9.7 | 0.00 | 0.00 | 0.00 | 76 | 1015.8 |
| 20260905082611 | 20 | 202 | 0.0 | 9.7 | 0.00 | 0.00 | 0.00 | 77 | 1015.8 |
| 20260905082554 | 20 | 192 | 0.0 | 9.7 | 0.00 | 0.00 | 0.00 | 76 | 1015.8 |
| 20260905082327 | 20 | 218 | 0.0 | 9.7 | 0.00 | 0.00 | 0.00 | 76 | 1015.7 |
| 20260905082311 | 20 | 207 | 0.0 | 1.6 | 0.00 | 0.00 | 0.00 | 77 | 1015.8 |
| 20260905081951 | 20 | 200 | 0.0 | 1.6 | 0.00 | 0.00 | 0.00 | 76 | 1015.8 |
| 20260905081851 | 20 | 198 | 0.0 | 3.2 | 0.00 | 0.00 | 0.00 | 77 | 1015.9 |
| 20260905081752 | 20 | 198 | 0.0 | 3.2 | 0.00 | 0.00 | 0.00 | 77 | 1015.7 |
| 20260905081651 | 20 | 200 | 0.0 | 3.2 | 0.00 | 0.00 | 0.00 | 77 | 1015.6 |
| 20260905081626 | 19 | 138 | 0.0 | 3.2 | 0.00 | 0.00 | 0.00 | 78 | 1015.7 |
| 20260905081610 | 19 | 212 | 1.6 | 3.2 | 0.00 | 0.00 | 0.00 | 79 | 1015.7 |
| 20260905081315 | 19 | 205 | 0.0 | 3.2 | 0.00 | 0.00 | 0.00 | 80 | 1015.9 |
| 20260905081259 | 18 | 200 | 0.0 | 3.2 | 0.00 | 0.00 | 0.00 | 80 | 1016.0 |
| 20260905080939 | 18 | 183 | 1.6 | 3.2 | 0.00 | 0.00 | 0.00 | 80 | 1015.8 |
| 20260905080916 | 18 | 206 | 0.0 | 3.2 | 0.00 | 0.00 | 0.00 | 80 | 1015.9 |
| 20260905080854 | 18 | 193 | 0.0 | 3.2 | 0.00 | 0.00 | 0.00 | 81 | 1016.0 |
| 20260905080836 | 18 | 197 | 0.0 | 3.2 | 0.00 | 0.00 | 0.00 | 80 | 1016.0 |
| 20260905080601 | 18 | 179 | 0.0 | 3.2 | 0.00 | 0.00 | 0.00 | 81 | 1015.8 |
| 20260905080239 | 18 | 199 | 0.0 | 3.2 | 0.00 | 0.00 | 0.00 | 82 | 1015.9 |
| 20260905080139 | 18 | 194 | 0.0 | 3.2 | 0.00 | 0.00 | 0.00 | 82 | 1015.9 |
| 20260905080039 | 17 | 200 | 0.0 | 3.2 | 0.00 | 0.00 | 0.00 | 83 | 1016.0 |
| 20260905075938 | 17 | 206 | 0.0 | 3.2 | 0.00 | 0.00 | 0.00 | 84 | 1016.0 |
| 20260905075839 | 17 | 207 | 1.6 | 3.2 | 0.00 | 0.00 | 0.00 | 84 | 1016.0 |
| 20260905075738 | 17 | 196 | 0.0 | 3.2 | 0.00 | 0.00 | 0.00 | 84 | 1015.9 |
| 20260905075640 | 17 | 203 | 0.0 | 3.2 | 0.00 | 0.00 | 0.00 | 84 | 1015.7 |
| 20260905075540 | 17 | 198 | 0.0 | 3.2 | 0.00 | 0.00 | 0.00 | 84 | 1015.9 |
| 20260905075438 | 17 | 198 | 0.0 | 3.2 | 0.00 | 0.00 | 0.00 | 84 | 1016.2 |
| 20260905075414 | 17 | 205 | 0.0 | 3.2 | 0.00 | 0.00 | 0.00 | 84 | 1016.1 |
| 20260905075352 | 17 | 175 | 0.0 | 3.2 | 0.00 | 0.00 | 0.00 | 84 | 1015.9 |
| 20260905075336 | 17 | 199 | 0.0 | 3.2 | 0.00 | 0.00 | 0.00 | 84 | 1016.0 |
| 20260905075100 | 17 | 208 | 0.0 | 3.2 | 0.00 | 0.00 | 0.00 | 84 | 1016.0 |
| 20260905074738 | 17 | 205 | 1.6 | 6.4 | 0.00 | 0.00 | 0.00 | 85 | 1016.1 |
| 20260905074639 | 17 | 182 | 0.0 | 6.4 | 0.00 | 0.00 | 0.00 | 85 | 1016.0 |
| 20260905074540 | 17 | 191 | 0.0 | 6.4 | 0.00 | 0.00 | 0.00 | 86 | 1016.2 |
| 20260905074444 | 17 | 200 | 0.0 | 6.4 | 0.00 | 0.00 | 0.00 | 86 | 1016.1 |
| 20260905074429 | 17 | 215 | 0.0 | 6.4 | 0.00 | 0.00 | 0.00 | 87 | 1016.0 |
| 20260905074405 | 16 | 204 | 0.0 | 6.4 | 0.00 | 0.00 | 0.00 | 87 | 1015.8 |
| 20260905074039 | 16 | 196 | 0.0 | 6.4 | 0.00 | 0.00 | 0.00 | 88 | 1015.9 |
| 20260905073939 | 16 | 199 | 0.0 | 6.4 | 0.00 | 0.00 | 0.00 | 88 | 1016.0 |
| 20260905073839 | 16 | 208 | 1.6 | 4.8 | 0.00 | 0.00 | 0.00 | 88 | 1015.8 |
| 20260905073740 | 16 | 199 | 0.0 | 4.8 | 0.00 | 0.00 | 0.00 | 88 | 1015.8 |
| 20260905073715 | 16 | 199 | 0.0 | 4.8 | 0.00 | 0.00 | 0.00 | 89 | 1015.9 |
| 20260905073659 | 16 | 198 | 0.0 | 4.8 | 0.00 | 0.00 | 0.00 | 89 | 1015.8 |
| 20260905073339 | 16 | 247 | 0.0 | 4.8 | 0.00 | 0.00 | 0.00 | 89 | 1015.9 |
| 20260905073239 | 16 | 143 | 0.0 | 4.8 | 0.00 | 0.00 | 0.00 | 89 | 1015.8 |
| 20260905073140 | 16 | 190 | 1.6 | 4.8 | 0.00 | 0.00 | 0.00 | 89 | 1015.7 |
| 20260905073039 | 16 | 194 | 0.0 | 4.8 | 0.00 | 0.00 | 0.00 | 88 | 1015.9 |
| 20260905072940 | 16 | 236 | 0.0 | 1.6 | 0.00 | 0.00 | 0.00 | 88 | 1016.0 |
| 20260905072840 | 16 | 196 | 0.0 | 1.6 | 0.00 | 0.00 | 0.00 | 89 | 1015.8 |
| 20260905072739 | 16 | 197 | 0.0 | 1.6 | 0.00 | 0.00 | 0.00 | 89 | 1015.8 |
| 20260905072639 | 16 | 199 | 0.0 | 3.2 | 0.00 | 0.00 | 0.00 | 89 | 1015.9 |
| 20260905072614 | 15 | 200 | 0.0 | 3.2 | 0.00 | 0.00 | 0.00 | 90 | 1015.7 |
| 20260905072610 | 15 | 198 | 0.0 | 4.8 | 0.00 | 0.00 | 0.00 | 91 | 1015.6 |
| 20260905072602 | 16 | 191 | 0.0 | 3.2 | 0.00 | 0.00 | 0.00 | 89 | 1015.9 |
| 20260905072546 | 15 | 194 | 0.0 | 3.2 | 0.00 | 0.00 | 0.00 | 89 | 1016.0 |
| 20260905072530 | 15 | 202 | 0.0 | 3.2 | 0.00 | 0.00 | 0.00 | 89 | 1015.9 |
| 20260905072508 | 15 | 200 | 0.0 | 3.2 | 0.00 | 0.00 | 0.00 | 89 | 1016.0 |
| 20260905072452 | 15 | 187 | 0.0 | 3.2 | 0.00 | 0.00 | 0.00 | 89 | 1016.0 |
| 20260905072215 | 15 | 200 | 0.0 | 3.2 | 0.00 | 0.00 | 0.00 | 89 | 1016.0 |
| 20260905072158 | 15 | 196 | 0.0 | 3.2 | 0.00 | 0.00 | 0.00 | 89 | 1015.7 |
| 20260905072141 | 15 | 200 | 0.0 | 3.2 | 0.00 | 0.00 | 0.00 | 90 | 1015.7 |
| 20260905071913 | 15 | 199 | 0.0 | 1.6 | 0.00 | 0.00 | 0.00 | 90 | 1015.7 |
| 20260905071857 | 15 | 192 | 0.0 | 1.6 | 0.00 | 0.00 | 0.00 | 90 | 1015.8 |
| 20260905071841 | 15 | 207 | 0.0 | 1.6 | 0.00 | 0.00 | 0.00 | 90 | 1015.7 |
| 20260905071825 | 15 | 199 | 0.0 | 1.6 | 0.00 | 0.00 | 0.00 | 90 | 1015.8 |
| 20260905071557 | 15 | 194 | 0.0 | 1.6 | 0.00 | 0.00 | 0.00 | 90 | 1015.8 |
| 20260905071321 | 15 | 194 | 0.0 | 3.2 | 0.00 | 0.00 | 0.00 | 90 | 1015.8 |
| 20260905071306 | 15 | 192 | 0.0 | 4.8 | 0.00 | 0.00 | 0.00 | 90 | 1015.8 |
| 20260905071027 | 15 | 198 | 0.0 | 4.8 | 0.00 | 0.00 | 0.00 | 91 | 1015.6 |
| 20260905070758 | 15 | 198 | 0.0 | 4.8 | 0.00 | 0.00 | 0.00 | 91 | 1015.6 |
| 20260905070439 | 15 | 209 | 0.0 | 4.8 | 0.00 | 0.00 | 0.00 | 91 | 1015.5 |
| 20260905070339 | 15 | 196 | 0.0 | 4.8 | 0.00 | 0.00 | 0.00 | 91 | 1015.6 |
| 20260905070315 | 15 | 201 | 0.0 | 4.8 | 0.00 | 0.00 | 0.00 | 91 | 1015.6 |
| 20260905070259 | 15 | 209 | 0.0 | 4.8 | 0.00 | 0.00 | 0.00 | 91 | 1015.7 |
| 20260905065938 | 15 | 192 | 0.0 | 1.6 | 0.00 | 0.00 | 0.00 | 91 | 1015.7 |
| 20260905065840 | 15 | 197 | 0.0 | 1.6 | 0.00 | 0.00 | 0.00 | 91 | 1015.6 |
| 20260905065818 | 15 | 194 | 0.0 | 0.0 | 0.00 | 0.00 | 0.00 | 91 | 1015.5 |
| 20260905065800 | 15 | 191 | 0.0 | 0.0 | 0.00 | 0.00 | 0.00 | 91 | 1015.8 |
| 20260905065522 | 15 | 198 | 0.0 | 1.6 | 0.00 | 0.00 | 0.00 | 91 | 1015.4 |
| 20260905065506 | 15 | 200 | 0.0 | 1.6 | 0.00 | 0.00 | 0.00 | 91 | 1015.4 |
| 20260905065240 | 15 | 200 | 0.0 | 1.6 | 0.00 | 0.00 | 0.00 | 91 | 1015.5 |
| 20260905065139 | 15 | 199 | 0.0 | 1.6 | 0.00 | 0.00 | 0.00 | 91 | 1015.3 |
| 20260905065040 | 15 | 196 | 0.0 | 1.6 | 0.00 | 0.00 | 0.00 | 91 | 1015.3 |
| 20260905064939 | 15 | 200 | 0.0 | 3.2 | 0.00 | 0.00 | 0.00 | 91 | 1015.5 |
| 20260905064839 | 15 | 201 | 0.0 | 3.2 | 0.00 | 0.00 | 0.00 | 91 | 1015.2 |
| 20260905064739 | 15 | 196 | 0.0 | 3.2 | 0.00 | 0.00 | 0.00 | 91 | 1015.5 |
| 20260905064638 | 15 | 196 | 0.0 | 3.2 | 0.00 | 0.00 | 0.00 | 91 | 1015.2 |
| 20260905064538 | 15 | 189 | 0.0 | 3.2 | 0.00 | 0.00 | 0.00 | 91 | 1015.5 |
| 20260905064438 | 15 | 194 | 0.0 | 3.2 | 0.00 | 0.00 | 0.00 | 91 | 1015.6 |
| 20260905064414 | 15 | 198 | 0.0 | 1.6 | 0.00 | 0.00 | 0.00 | 92 | 1015.4 |
| 20260905064406 | 15 | 196 | 0.0 | 3.2 | 0.00 | 0.00 | 0.00 | 91 | 1015.3 |
| 20260905064344 | 15 | 192 | 0.0 | 3.2 | 0.00 | 0.00 | 0.00 | 91 | 1015.3 |
| 20260905064328 | 15 | 198 | 0.0 | 3.2 | 0.00 | 0.00 | 0.00 | 91 | 1015.5 |
| 20260905064312 | 15 | 199 | 0.0 | 3.2 | 0.00 | 0.00 | 0.00 | 91 | 1015.4 |
| 20260905064257 | 15 | 196 | 0.0 | 1.6 | 0.00 | 0.00 | 0.00 | 91 | 1015.5 |
| 20260905064241 | 15 | 204 | 0.0 | 1.6 | 0.00 | 0.00 | 0.00 | 91 | 1015.3 |
| 20260905064219 | 15 | 199 | 0.0 | 1.6 | 0.00 | 0.00 | 0.00 | 91 | 1015.4 |
| 20260905063708 | 15 | 198 | 0.0 | 1.6 | 0.00 | 0.00 | 0.00 | 91 | 1015.3 |
| 20260905063426 | 15 | 197 | 0.0 | 1.6 | 0.00 | 0.00 | 0.00 | 92 | 1015.4 |
| 20260905063202 | 15 | 195 | 0.0 | 1.6 | 0.00 | 0.00 | 0.00 | 92 | 1015.5 |
| 20260905063147 | 15 | 181 | 0.0 | 0.0 | 0.00 | 0.00 | 0.00 | 91 | 1015.5 |
| 20260905063131 | 15 | 197 | 0.0 | 1.6 | 0.00 | 0.00 | 0.00 | 91 | 1015.2 |
| 20260905063115 | 15 | 200 | 0.0 | 1.6 | 0.00 | 0.00 | 0.00 | 92 | 1015.5 |
| 20260905063056 | 15 | 198 | 0.0 | 1.6 | 0.00 | 0.00 | 0.00 | 92 | 1015.4 |
| 20260905062527 | 15 | 193 | 0.0 | 1.6 | 0.00 | 0.00 | 0.00 | 92 | 1015.3 |
| 20260905062426 | 15 | 191 | 0.0 | 1.6 | 0.00 | 0.00 | 0.00 | 92 | 1015.2 |
| 20260905062327 | 15 | 202 | 0.0 | 1.6 | 0.00 | 0.00 | 0.00 | 92 | 1015.0 |
| 20260905062228 | 15 | 195 | 0.0 | 1.6 | 0.00 | 0.00 | 0.00 | 92 | 1015.3 |
| 20260905062126 | 15 | 192 | 0.0 | 1.6 | 0.00 | 0.00 | 0.00 | 92 | 1015.3 |
| 20260905062026 | 15 | 200 | 0.0 | 1.6 | 0.00 | 0.00 | 0.00 | 92 | 1015.1 |
| 20260905061926 | 15 | 195 | 0.0 | 1.6 | 0.00 | 0.00 | 0.00 | 92 | 1015.2 |
| 20260905061826 | 15 | 198 | 0.0 | 1.6 | 0.00 | 0.00 | 0.00 | 92 | 1015.2 |
| 20260905061726 | 15 | 197 | 0.0 | 0.0 | 0.00 | 0.00 | 0.00 | 92 | 1015.1 |
| 20260905061702 | 15 | 197 | 0.0 | 0.0 | 0.00 | 0.00 | 0.00 | 92 | 1015.1 |
| 20260905061646 | 15 | 198 | 0.0 | 0.0 | 0.00 | 0.00 | 0.00 | 92 | 1015.3 |
| 20260905061326 | 15 | 198 | 0.0 | 0.0 | 0.00 | 0.00 | 0.00 | 92 | 1015.0 |
| 20260905061301 | 15 | 197 | 0.0 | 3.2 | 0.00 | 0.00 | 0.00 | 92 | 1015.1 |
| 20260905061245 | 15 | 198 | 0.0 | 1.6 | 0.00 | 0.00 | 0.00 | 92 | 1015.1 |
| 20260905061228 | 15 | 198 | 0.0 | 1.6 | 0.00 | 0.00 | 0.00 | 92 | 1015.1 |
| 20260905061213 | 15 | 200 | 0.0 | 1.6 | 0.00 | 0.00 | 0.00 | 92 | 1014.7 |
| 20260905060937 | 15 | 200 | 0.0 | 3.2 | 0.00 | 0.00 | 0.00 | 92 | 1014.8 |
| 20260905060913 | 15 | 194 | 0.0 | 3.2 | 0.00 | 0.00 | 0.00 | 92 | 1015.1 |
| 20260905060857 | 15 | 195 | 0.0 | 3.2 | 0.00 | 0.00 | 0.00 | 92 | 1014.8 |
| 20260905060842 | 15 | 193 | 0.0 | 3.2 | 0.00 | 0.00 | 0.00 | 92 | 1015.0 |
| 20260905060826 | 15 | 194 | 0.0 | 3.2 | 0.00 | 0.00 | 0.00 | 92 | 1015.1 |
| 20260905060810 | 15 | 195 | 0.0 | 3.2 | 0.00 | 0.00 | 0.00 | 92 | 1015.1 |
| 20260905060751 | 15 | 197 | 0.0 | 3.2 | 0.00 | 0.00 | 0.00 | 92 | 1015.1 |
| 20260905060305 | 15 | 197 | 0.0 | 3.2 | 0.00 | 0.00 | 0.00 | 91 | 1015.0 |
| 20260905060249 | 15 | 202 | 0.0 | 3.2 | 0.00 | 0.00 | 0.00 | 91 | 1015.1 |
| 20260905060234 | 15 | 200 | 0.0 | 1.6 | 0.00 | 0.00 | 0.00 | 92 | 1015.1 |
| 20260905060209 | 15 | 203 | 0.0 | 1.6 | 0.00 | 0.00 | 0.00 | 91 | 1015.1 |
| 20260905055712 | 15 | 199 | 0.0 | 1.6 | 0.00 | 0.00 | 0.00 | 91 | 1015.2 |
| 20260905055226 | 15 | 200 | 0.0 | 1.6 | 0.00 | 0.00 | 0.00 | 91 | 1014.9 |
| 20260905055203 | 15 | 175 | 0.0 | 0.0 | 0.00 | 0.00 | 0.00 | 91 | 1014.8 |
| 20260905055155 | 15 | 202 | 0.0 | 1.6 | 0.00 | 0.00 | 0.00 | 91 | 1014.8 |
| 20260905055140 | 15 | 198 | 0.0 | 1.6 | 0.00 | 0.00 | 0.00 | 91 | 1014.7 |
| 20260905055124 | 15 | 199 | 0.0 | 1.6 | 0.00 | 0.00 | 0.00 | 91 | 1014.8 |
| 20260905055108 | 15 | 198 | 0.0 | 1.6 | 0.00 | 0.00 | 0.00 | 91 | 1014.8 |
| 20260905054839 | 15 | 199 | 0.0 | 1.6 | 0.00 | 0.00 | 0.00 | 91 | 1014.9 |
| 20260905054824 | 15 | 199 | 0.0 | 1.6 | 0.00 | 0.00 | 0.00 | 91 | 1014.5 |
| 20260905054808 | 15 | 201 | 0.0 | 1.6 | 0.00 | 0.00 | 0.00 | 91 | 1014.7 |
| 20260905054751 | 15 | 201 | 0.0 | 1.6 | 0.00 | 0.00 | 0.00 | 91 | 1014.9 |
| 20260905054735 | 15 | 200 | 0.0 | 1.6 | 0.00 | 0.00 | 0.00 | 91 | 1014.7 |
| 20260905054247 | 15 | 196 | 0.0 | 0.0 | 0.00 | 0.00 | 0.00 | 91 | 1014.8 |
| 20260905053926 | 15 | 196 | 0.0 | 0.0 | 0.00 | 0.00 | 0.00 | 91 | 1014.9 |
| 20260905053826 | 15 | 192 | 0.0 | 0.0 | 0.00 | 0.00 | 0.00 | 91 | 1014.9 |
| 20260905053727 | 15 | 179 | 0.0 | 0.0 | 0.00 | 0.00 | 0.00 | 90 | 1014.8 |
| 20260905053626 | 15 | 197 | 0.0 | 1.6 | 0.00 | 0.00 | 0.00 | 91 | 1014.9 |
| 20260905053526 | 15 | 189 | 0.0 | 1.6 | 0.00 | 0.00 | 0.00 | 91 | 1014.9 |
| 20260905053427 | 15 | 195 | 0.0 | 1.6 | 0.00 | 0.00 | 0.00 | 91 | 1014.7 |
| 20260905053326 | 15 | 179 | 0.0 | 1.6 | 0.00 | 0.00 | 0.00 | 91 | 1014.6 |
| 20260905053226 | 15 | 201 | 0.0 | 1.6 | 0.00 | 0.00 | 0.00 | 91 | 1014.7 |
| 20260905053126 | 15 | 200 | 0.0 | 1.6 | 0.00 | 0.00 | 0.00 | 91 | 1014.5 |
| 20260905053025 | 15 | 203 | 0.0 | 1.6 | 0.00 | 0.00 | 0.00 | 91 | 1014.5 |
| 20260905052926 | 15 | 199 | 0.0 | 1.6 | 0.00 | 0.00 | 0.00 | 92 | 1014.2 |
| 20260905052826 | 15 | 198 | 0.0 | 1.6 | 0.00 | 0.00 | 0.00 | 92 | 1014.3 |
| 20260905052727 | 15 | 206 | 0.0 | 1.6 | 0.00 | 0.00 | 0.00 | 92 | 1014.5 |
| 20260905052626 | 15 | 196 | 0.0 | 3.2 | 0.00 | 0.00 | 0.00 | 92 | 1014.5 |
| 20260905052526 | 15 | 200 | 0.0 | 3.2 | 0.00 | 0.00 | 0.00 | 92 | 1014.7 |
| 20260905052426 | 15 | 147 | 0.0 | 3.2 | 0.00 | 0.00 | 0.00 | 92 | 1014.3 |
| 20260905052326 | 15 | 185 | 0.0 | 3.2 | 0.00 | 0.00 | 0.00 | 92 | 1014.5 |
| 20260905052226 | 15 | 210 | 0.0 | 3.2 | 0.00 | 0.00 | 0.00 | 92 | 1014.6 |
| 20260905052133 | 15 | 199 | 0.0 | 3.2 | 0.00 | 0.00 | 0.00 | 92 | 1014.7 |
| 20260905052117 | 15 | 199 | 0.0 | 3.2 | 0.00 | 0.00 | 0.00 | 92 | 1014.5 |
| 20260905052102 | 15 | 210 | 0.0 | 3.2 | 0.00 | 0.00 | 0.00 | 92 | 1014.5 |
| 20260905052047 | 15 | 203 | 0.0 | 3.2 | 0.00 | 0.00 | 0.00 | 92 | 1014.5 |
| 20260905051818 | 15 | 220 | 0.0 | 3.2 | 0.00 | 0.00 | 0.00 | 92 | 1014.3 |
| 20260905051802 | 15 | 200 | 0.0 | 3.2 | 0.00 | 0.00 | 0.00 | 92 | 1014.6 |
| 20260905051747 | 15 | 192 | 0.0 | 3.2 | 0.00 | 0.00 | 0.00 | 92 | 1014.5 |
| 20260905051731 | 15 | 207 | 0.0 | 3.2 | 0.00 | 0.00 | 0.00 | 92 | 1014.6 |
| 20260905051715 | 15 | 199 | 0.0 | 3.2 | 0.00 | 0.00 | 0.00 | 92 | 1014.5 |
| 20260905051653 | 15 | 193 | 0.0 | 3.2 | 0.00 | 0.00 | 0.00 | 93 | 1014.3 |
| 20260905051637 | 15 | 192 | 0.0 | 3.2 | 0.00 | 0.00 | 0.00 | 93 | 1014.5 |
| 20260905051621 | 14 | 169 | 0.0 | 3.2 | 0.00 | 0.00 | 0.00 | 93 | 1014.5 |
| 20260905051605 | 14 | 192 | 0.0 | 3.2 | 0.00 | 0.00 | 0.00 | 93 | 1014.6 |
| 20260905051320 | 15 | 104 | 1.6 | 3.2 | 0.00 | 0.00 | 0.00 | 93 | 1014.3 |
| 20260905051044 | 15 | 279 | 1.6 | 3.2 | 0.00 | 0.00 | 0.00 | 93 | 1014.2 |
| 20260905051029 | 15 | 279 | 1.6 | 3.2 | 0.00 | 0.00 | 0.00 | 93 | 1014.5 |
| 20260905051013 | 15 | 196 | 0.0 | 3.2 | 0.00 | 0.00 | 0.00 | 93 | 1014.6 |
| 20260905050747 | 15 | 263 | 1.6 | 3.2 | 0.00 | 0.00 | 0.00 | 93 | 1014.7 |
| 20260905050511 | 15 | 197 | 0.0 | 3.2 | 0.00 | 0.00 | 0.00 | 93 | 1014.8 |
| 20260905050234 | 15 | 195 | 0.0 | 3.2 | 0.00 | 0.00 | 0.00 | 93 | 1014.5 |
| 20260905050005 | 15 | 143 | 1.6 | 1.6 | 0.00 | 0.00 | 0.00 | 93 | 1014.6 |
| 20260905045426 | 15 | 200 | 0.0 | 1.6 | 0.00 | 0.00 | 0.00 | 94 | 1014.5 |
| 20260905045327 | 15 | 198 | 0.0 | 1.6 | 0.00 | 0.00 | 0.00 | 94 | 1014.3 |
| 20260905045227 | 15 | 202 | 0.0 | 1.6 | 0.00 | 0.00 | 0.00 | 94 | 1014.5 |
| 20260905045128 | 15 | 189 | 0.0 | 1.6 | 0.00 | 0.00 | 0.00 | 94 | 1014.2 |
| 20260905045027 | 15 | 193 | 0.0 | 1.6 | 0.00 | 0.00 | 0.00 | 94 | 1014.6 |
| 20260905044928 | 15 | 198 | 0.0 | 1.6 | 0.00 | 0.00 | 0.00 | 94 | 1014.3 |
| 20260905044826 | 15 | 199 | 0.0 | 1.6 | 0.00 | 0.00 | 0.00 | 94 | 1014.1 |
| 20260905044727 | 15 | 169 | 0.0 | 1.6 | 0.00 | 0.00 | 0.00 | 94 | 1013.7 |
| 20260905044626 | 15 | 202 | 0.0 | 1.6 | 0.00 | 0.00 | 0.00 | 94 | 1013.9 |
| 20260905044527 | 15 | 188 | 0.0 | 0.0 | 0.00 | 0.00 | 0.00 | 94 | 1013.8 |
| 20260905044426 | 15 | 202 | 0.0 | 0.0 | 0.00 | 0.00 | 0.00 | 94 | 1013.7 |
| 20260905044410 | 15 | 196 | 0.0 | 1.6 | 0.00 | 0.00 | 0.00 | 94 | 1014.0 |
| 20260905044404 | 15 | 199 | 0.0 | 3.2 | 0.00 | 0.00 | 0.00 | 94 | 1014.0 |
| 20260905044358 | 15 | 200 | 0.0 | 0.0 | 0.00 | 0.00 | 0.00 | 94 | 1013.5 |
| 20260905044335 | 15 | 201 | 0.0 | 1.6 | 0.00 | 0.00 | 0.00 | 94 | 1013.9 |
| 20260905044320 | 15 | 212 | 0.0 | 1.6 | 0.00 | 0.00 | 0.00 | 94 | 1013.6 |
| 20260905044304 | 15 | 201 | 0.0 | 1.6 | 0.00 | 0.00 | 0.00 | 94 | 1013.8 |
| 20260905044248 | 15 | 197 | 0.0 | 1.6 | 0.00 | 0.00 | 0.00 | 94 | 1013.8 |
| 20260905044233 | 15 | 198 | 0.0 | 1.6 | 0.00 | 0.00 | 0.00 | 94 | 1014.0 |
| 20260905043745 | 15 | 197 | 0.0 | 1.6 | 0.00 | 0.00 | 0.00 | 94 | 1013.9 |
| 20260905043729 | 15 | 197 | 0.0 | 3.2 | 0.00 | 0.00 | 0.00 | 94 | 1014.1 |
| 20260905043713 | 15 | 201 | 0.0 | 3.2 | 0.00 | 0.00 | 0.00 | 94 | 1014.0 |
| 20260905043657 | 15 | 196 | 0.0 | 3.2 | 0.00 | 0.00 | 0.00 | 94 | 1014.0 |
| 20260905043126 | 15 | 199 | 0.0 | 3.2 | 0.00 | 0.00 | 0.00 | 94 | 1014.0 |
| 20260905043026 | 15 | 196 | 0.0 | 3.2 | 0.00 | 0.00 | 0.00 | 94 | 1014.0 |
| 20260905042926 | 15 | 199 | 0.0 | 3.2 | 0.00 | 0.00 | 0.00 | 94 | 1013.8 |
| 20260905042826 | 15 | 202 | 0.0 | 3.2 | 0.00 | 0.00 | 0.00 | 95 | 1013.9 |
| 20260905042726 | 15 | 199 | 0.0 | 3.2 | 0.00 | 0.00 | 0.00 | 94 | 1013.8 |
| 20260905042655 | 15 | 202 | 0.0 | 3.2 | 0.00 | 0.00 | 0.00 | 95 | 1013.8 |
| 20260905042651 | 15 | 197 | 0.0 | 1.6 | 0.00 | 0.00 | 0.00 | 96 | 1013.5 |
| 20260905042646 | 15 | 194 | 0.0 | 4.8 | 0.00 | 0.00 | 0.00 | 95 | 1013.5 |
| 20260905042641 | 15 | 196 | 0.0 | 3.2 | 0.00 | 0.00 | 0.00 | 95 | 1014.0 |
| 20260905042636 | 15 | 188 | 0.0 | 3.2 | 0.00 | 0.00 | 0.00 | 94 | 1013.8 |
| 20260905042620 | 15 | 196 | 0.0 | 1.6 | 0.00 | 0.00 | 0.00 | 94 | 1013.5 |
| 20260905042605 | 15 | 195 | 0.0 | 1.6 | 0.00 | 0.00 | 0.00 | 95 | 1013.7 |
| 20260905042341 | 15 | 152 | 0.0 | 1.6 | 0.00 | 0.00 | 0.00 | 94 | 1013.6 |
| 20260905042318 | 15 | 199 | 0.0 | 1.6 | 0.00 | 0.00 | 0.00 | 95 | 1013.8 |
| 20260905042301 | 15 | 195 | 0.0 | 1.6 | 0.00 | 0.00 | 0.00 | 95 | 1013.5 |
| 20260905042024 | 15 | 196 | 0.0 | 1.6 | 0.00 | 0.00 | 0.00 | 95 | 1013.9 |
| 20260905042008 | 15 | 203 | 0.0 | 1.6 | 0.00 | 0.00 | 0.00 | 95 | 1013.7 |
| 20260905041943 | 15 | 194 | 0.0 | 1.6 | 0.00 | 0.00 | 0.00 | 95 | 1013.6 |
| 20260905041927 | 15 | 197 | 0.0 | 1.6 | 0.00 | 0.00 | 0.00 | 95 | 1013.8 |
| 20260905041442 | 15 | 204 | 0.0 | 1.6 | 0.00 | 0.00 | 0.00 | 95 | 1013.5 |
| 20260905041427 | 15 | 199 | 0.0 | 1.6 | 0.00 | 0.00 | 0.00 | 95 | 1013.6 |
| 20260905041405 | 15 | 204 | 0.0 | 1.6 | 0.00 | 0.00 | 0.00 | 95 | 1013.6 |
| 20260905041349 | 15 | 196 | 0.0 | 1.6 | 0.00 | 0.00 | 0.00 | 95 | 1013.6 |
| 20260905041334 | 15 | 192 | 0.0 | 1.6 | 0.00 | 0.00 | 0.00 | 95 | 1013.8 |
| 20260905041317 | 15 | 199 | 0.0 | 1.6 | 0.00 | 0.00 | 0.00 | 95 | 1013.9 |
| 20260905041302 | 15 | 199 | 0.0 | 1.6 | 0.00 | 0.00 | 0.00 | 95 | 1013.8 |
| 20260905041242 | 15 | 196 | 0.0 | 3.2 | 0.00 | 0.00 | 0.00 | 95 | 1014.0 |
| 20260905041016 | 15 | 196 | 0.0 | 3.2 | 0.00 | 0.00 | 0.00 | 95 | 1013.7 |
| 20260905041000 | 15 | 203 | 0.0 | 3.2 | 0.00 | 0.00 | 0.00 | 95 | 1013.9 |
| 20260905040943 | 15 | 206 | 0.0 | 3.2 | 0.00 | 0.00 | 0.00 | 95 | 1013.7 |
| 20260905040928 | 15 | 201 | 0.0 | 3.2 | 0.00 | 0.00 | 0.00 | 95 | 1013.7 |
| 20260905040440 | 15 | 198 | 0.0 | 3.2 | 0.00 | 0.00 | 0.00 | 95 | 1013.7 |
| 20260905040203 | 15 | 194 | 0.0 | 3.2 | 0.00 | 0.00 | 0.00 | 95 | 1013.8 |
| 20260905040147 | 15 | 194 | 0.0 | 3.2 | 0.00 | 0.00 | 0.00 | 95 | 1014.0 |
| 20260905035919 | 15 | 202 | 0.0 | 1.6 | 0.00 | 0.00 | 0.00 | 95 | 1013.9 |
| 20260905035903 | 15 | 202 | 0.0 | 1.6 | 0.00 | 0.00 | 0.00 | 95 | 1013.9 |
| 20260905035627 | 15 | 200 | 0.0 | 1.6 | 0.00 | 0.00 | 0.00 | 95 | 1013.6 |
| 20260905035611 | 15 | 197 | 0.0 | 1.6 | 0.00 | 0.00 | 0.00 | 95 | 1013.6 |
| 20260905035554 | 15 | 197 | 0.0 | 1.6 | 0.00 | 0.00 | 0.00 | 96 | 1013.5 |
| 20260905035329 | 15 | 197 | 0.0 | 1.6 | 0.00 | 0.00 | 0.00 | 96 | 1013.6 |
| 20260905035313 | 15 | 196 | 0.0 | 1.6 | 0.00 | 0.00 | 0.00 | 95 | 1013.4 |
| 20260905034806 | 15 | 199 | 0.0 | 4.8 | 0.00 | 0.00 | 0.00 | 95 | 1013.5 |
| 20260905034750 | 15 | 281 | 0.0 | 4.8 | 0.00 | 0.00 | 0.00 | 95 | 1013.4 |
| 20260905034734 | 15 | 202 | 0.0 | 4.8 | 0.00 | 0.00 | 0.00 | 96 | 1013.1 |
| 20260905034509 | 15 | 195 | 0.0 | 4.8 | 0.00 | 0.00 | 0.00 | 95 | 1013.4 |
| 20260905034453 | 15 | 201 | 0.0 | 4.8 | 0.00 | 0.00 | 0.00 | 95 | 1013.2 |
| 20260905034436 | 15 | 194 | 0.0 | 4.8 | 0.00 | 0.00 | 0.00 | 95 | 1013.5 |
| 20260905034126 | 15 | 201 | 0.0 | 4.8 | 0.00 | 0.00 | 0.00 | 95 | 1013.2 |
| 20260905034026 | 15 | 204 | 0.0 | 4.8 | 0.00 | 0.00 | 0.00 | 95 | 1013.1 |
| 20260905033927 | 15 | 198 | 0.0 | 4.8 | 0.00 | 0.00 | 0.00 | 95 | 1013.0 |
| 20260905033826 | 15 | 197 | 0.0 | 4.8 | 0.00 | 0.00 | 0.00 | 95 | 1013.3 |
| 20260905033726 | 15 | 202 | 0.0 | 6.4 | 0.00 | 0.00 | 0.00 | 95 | 1013.2 |
| 20260905033703 | 16 | 204 | 0.0 | 6.4 | 0.00 | 0.00 | 0.00 | 95 | 1013.4 |
| 20260905033647 | 16 | 192 | 0.0 | 6.4 | 0.00 | 0.00 | 0.00 | 95 | 1013.3 |
| 20260905033326 | 16 | 199 | 0.0 | 6.4 | 0.00 | 0.00 | 0.00 | 95 | 1013.1 |
| 20260905033225 | 16 | 200 | 0.0 | 6.4 | 0.00 | 0.00 | 0.00 | 95 | 1013.1 |
| 20260905033126 | 15 | 199 | 0.0 | 6.4 | 0.00 | 0.00 | 0.00 | 95 | 1013.0 |
| 20260905033026 | 15 | 200 | 0.0 | 6.4 | 0.00 | 0.00 | 0.00 | 95 | 1013.2 |
| 20260905033010 | 15 | 194 | 0.0 | 6.4 | 0.00 | 0.00 | 0.00 | 95 | 1013.2 |
| 20260905032954 | 15 | 228 | 1.6 | 6.4 | 0.00 | 0.00 | 0.00 | 95 | 1013.0 |
| 20260905032725 | 15 | 210 | 0.0 | 4.8 | 0.00 | 0.00 | 0.00 | 95 | 1013.1 |
| 20260905032626 | 15 | 206 | 0.0 | 4.8 | 0.00 | 0.00 | 0.00 | 95 | 1012.9 |
| 20260905032536 | 15 | 202 | 0.0 | 3.2 | 0.00 | 0.00 | 0.00 | 95 | 1012.9 |
| 20260905032530 | 15 | 204 | 0.0 | 4.8 | 0.00 | 0.00 | 0.00 | 95 | 1012.9 |
| 20260905032519 | 15 | 199 | 0.0 | 3.2 | 0.00 | 0.00 | 0.00 | 95 | 1012.4 |
| 20260905032515 | 16 | 198 | 0.0 | 1.6 | 0.00 | 0.00 | 0.00 | 94 | 1012.4 |
| 20260905032506 | 15 | 198 | 0.0 | 4.8 | 0.00 | 0.00 | 0.00 | 95 | 1012.7 |
| 20260905032450 | 15 | 203 | 0.0 | 4.8 | 0.00 | 0.00 | 0.00 | 95 | 1012.9 |
| 20260905032427 | 15 | 233 | 0.0 | 4.8 | 0.00 | 0.00 | 0.00 | 95 | 1013.2 |
| 20260905032411 | 15 | 211 | 1.6 | 4.8 | 0.00 | 0.00 | 0.00 | 95 | 1013.1 |
| 20260905032355 | 15 | 184 | 0.0 | 4.8 | 0.00 | 0.00 | 0.00 | 95 | 1013.1 |
| 20260905032339 | 15 | 212 | 0.0 | 3.2 | 0.00 | 0.00 | 0.00 | 95 | 1013.0 |
| 20260905032323 | 15 | 212 | 0.0 | 3.2 | 0.00 | 0.00 | 0.00 | 95 | 1012.9 |
| 20260905031616 | 15 | 206 | 0.0 | 3.2 | 0.00 | 0.00 | 0.00 | 95 | 1012.8 |
| 20260905031559 | 15 | 199 | 0.0 | 3.2 | 0.00 | 0.00 | 0.00 | 95 | 1012.6 |
| 20260905031543 | 15 | 204 | 0.0 | 3.2 | 0.00 | 0.00 | 0.00 | 95 | 1012.8 |
| 20260905031318 | 16 | 210 | 1.6 | 3.2 | 0.00 | 0.00 | 0.00 | 95 | 1012.7 |
| 20260905031302 | 16 | 216 | 0.0 | 3.2 | 0.00 | 0.00 | 0.00 | 95 | 1012.8 |
| 20260905031247 | 15 | 199 | 0.0 | 3.2 | 0.00 | 0.00 | 0.00 | 95 | 1012.8 |
| 20260905031231 | 15 | 199 | 0.0 | 3.2 | 0.00 | 0.00 | 0.00 | 95 | 1012.8 |
| 20260905031216 | 15 | 199 | 0.0 | 3.2 | 0.00 | 0.00 | 0.00 | 95 | 1012.9 |
| 20260905031150 | 15 | 212 | 0.0 | 3.2 | 0.00 | 0.00 | 0.00 | 95 | 1012.6 |
| 20260905030915 | 15 | 202 | 0.0 | 3.2 | 0.00 | 0.00 | 0.00 | 95 | 1012.7 |
| 20260905030859 | 15 | 203 | 0.0 | 3.2 | 0.00 | 0.00 | 0.00 | 95 | 1012.8 |
| 20260905030843 | 15 | 213 | 3.2 | 3.2 | 0.00 | 0.00 | 0.00 | 95 | 1012.8 |
| 20260905030820 | 15 | 200 | 0.0 | 3.2 | 0.00 | 0.00 | 0.00 | 95 | 1013.0 |
| 20260905030804 | 15 | 199 | 0.0 | 3.2 | 0.00 | 0.00 | 0.00 | 95 | 1012.8 |
| 20260905030748 | 15 | 199 | 0.0 | 3.2 | 0.00 | 0.00 | 0.00 | 95 | 1012.7 |
| 20260905030513 | 15 | 199 | 0.0 | 3.2 | 0.00 | 0.00 | 0.00 | 95 | 1012.5 |
| 20260905030012 | 15 | 203 | 0.0 | 3.2 | 0.00 | 0.00 | 0.00 | 95 | 1012.2 |
| 20260905025957 | 15 | 206 | 0.0 | 3.2 | 0.00 | 0.00 | 0.00 | 95 | 1012.3 |
| 20260905025721 | 15 | 204 | 0.0 | 1.6 | 0.00 | 0.00 | 0.00 | 95 | 1012.2 |
| 20260905025235 | 16 | 198 | 0.0 | 1.6 | 0.00 | 0.00 | 0.00 | 94 | 1012.5 |
| 20260905025219 | 16 | 197 | 0.0 | 1.6 | 0.00 | 0.00 | 0.00 | 94 | 1012.4 |
| 20260905024943 | 15 | 199 | 0.0 | 1.6 | 0.00 | 0.00 | 0.00 | 94 | 1012.4 |
| 20260905024714 | 15 | 197 | 0.0 | 1.6 | 0.00 | 0.00 | 0.00 | 94 | 1012.4 |
| 20260905024614 | 15 | 197 | 0.0 | 1.6 | 0.00 | 0.00 | 0.00 | 94 | 1012.7 |
| 20260905024514 | 15 | 210 | 0.0 | 1.6 | 0.00 | 0.00 | 0.00 | 94 | 1012.7 |
| 20260905024414 | 15 | 204 | 0.0 | 1.6 | 0.00 | 0.00 | 0.00 | 94 | 1012.7 |
| 20260905024313 | 15 | 203 | 0.0 | 3.2 | 0.00 | 0.00 | 0.00 | 94 | 1012.7 |
| 20260905024213 | 15 | 199 | 0.0 | 3.2 | 0.00 | 0.00 | 0.00 | 94 | 1012.5 |
| 20260905024113 | 15 | 202 | 0.0 | 3.2 | 0.00 | 0.00 | 0.00 | 94 | 1012.6 |
| 20260905024013 | 15 | 200 | 0.0 | 3.2 | 0.00 | 0.00 | 0.00 | 94 | 1012.4 |
| 20260905023913 | 15 | 200 | 0.0 | 3.2 | 0.00 | 0.00 | 0.00 | 94 | 1012.6 |
| 20260905023813 | 15 | 199 | 0.0 | 3.2 | 0.00 | 0.00 | 0.00 | 94 | 1012.7 |
| 20260905023714 | 15 | 199 | 0.0 | 3.2 | 0.00 | 0.00 | 0.00 | 94 | 1012.7 |
| 20260905023609 | 15 | 201 | 0.0 | 3.2 | 0.00 | 0.00 | 0.00 | 94 | 1012.9 |
| 20260905023509 | 15 | 185 | 0.0 | 3.2 | 0.00 | 0.00 | 0.00 | 94 | 1012.6 |
| 20260905023409 | 15 | 181 | 0.0 | 3.2 | 0.00 | 0.00 | 0.00 | 94 | 1012.7 |
| 20260905023352 | 15 | 199 | 0.0 | 3.2 | 0.00 | 0.00 | 0.00 | 94 | 1012.9 |
| 20260905023330 | 16 | 202 | 0.0 | 4.8 | 0.00 | 0.00 | 0.00 | 94 | 1012.8 |
| 20260905023010 | 15 | 196 | 0.0 | 4.8 | 0.00 | 0.00 | 0.00 | 94 | 1012.6 |
| 20260905022955 | 15 | 198 | 0.0 | 4.8 | 0.00 | 0.00 | 0.00 | 95 | 1012.7 |
| 20260905022938 | 15 | 190 | 0.0 | 4.8 | 0.00 | 0.00 | 0.00 | 95 | 1012.8 |
| 20260905022709 | 15 | 195 | 0.0 | 4.8 | 0.00 | 0.00 | 0.00 | 95 | 1012.5 |
| 20260905022609 | 15 | 204 | 1.6 | 4.8 | 0.00 | 0.00 | 0.00 | 95 | 1012.7 |
| 20260905022552 | 16 | 200 | 0.0 | 4.8 | 0.00 | 0.00 | 0.00 | 95 | 1012.5 |
| 20260905022543 | 15 | 212 | 0.0 | 4.8 | 0.00 | 0.00 | 0.00 | 95 | 1012.8 |
| 20260905022528 | 15 | 203 | 0.0 | 4.8 | 0.00 | 0.00 | 0.00 | 95 | 1012.8 |
| 20260905022512 | 15 | 195 | 0.0 | 3.2 | 0.00 | 0.00 | 0.00 | 95 | 1012.8 |
| 20260905022450 | 15 | 222 | 1.6 | 3.2 | 0.00 | 0.00 | 0.00 | 95 | 1012.6 |
| 20260905022434 | 16 | 198 | 0.0 | 1.6 | 0.00 | 0.00 | 0.00 | 95 | 1012.7 |
| 20260905022419 | 16 | 201 | 0.0 | 1.6 | 0.00 | 0.00 | 0.00 | 95 | 1012.9 |
| 20260905022403 | 16 | 202 | 0.0 | 4.8 | 0.00 | 0.00 | 0.00 | 95 | 1012.6 |
| 20260905021613 | 16 | 190 | 1.6 | 3.2 | 0.00 | 0.00 | 0.00 | 95 | 1013.0 |
| 20260905021609 | 16 | 202 | 0.0 | 4.8 | 0.00 | 0.00 | 0.00 | 95 | 1012.7 |
| 20260905021552 | 16 | 195 | 0.0 | 4.8 | 0.00 | 0.00 | 0.00 | 95 | 1012.8 |
| 20260905021536 | 16 | 199 | 0.0 | 4.8 | 0.00 | 0.00 | 0.00 | 95 | 1012.8 |
| 20260905021312 | 16 | 281 | 0.0 | 4.8 | 0.00 | 0.00 | 0.00 | 95 | 1012.9 |
| 20260905021247 | 15 | 200 | 0.0 | 4.8 | 0.00 | 0.00 | 0.00 | 95 | 1012.7 |
| 20260905021232 | 15 | 213 | 0.0 | 4.8 | 0.00 | 0.00 | 0.00 | 95 | 1012.7 |
| 20260905021215 | 16 | 166 | 0.0 | 4.8 | 0.00 | 0.00 | 0.00 | 95 | 1012.8 |
| 20260905021159 | 16 | 209 | 1.6 | 3.2 | 0.00 | 0.00 | 0.00 | 95 | 1012.8 |
| 20260905020919 | 16 | 190 | 1.6 | 3.2 | 0.00 | 0.00 | 0.00 | 95 | 1013.0 |
| 20260905020611 | 16 | 198 | 0.0 | 3.2 | 0.00 | 0.00 | 0.00 | 95 | 1013.1 |
| 20260905020513 | 16 | 199 | 0.0 | 4.8 | 0.00 | 0.00 | 0.00 | 95 | 1012.7 |
| 20260905020509 | 16 | 166 | 1.6 | 3.2 | 0.00 | 0.00 | 0.00 | 95 | 1013.1 |
| 20260905020458 | 16 | 190 | 0.0 | 1.6 | 0.00 | 0.00 | 0.00 | 95 | 1012.8 |
| 20260905020448 | 16 | 202 | 0.0 | 3.2 | 0.00 | 0.00 | 0.00 | 95 | 1012.8 |
| 20260905020432 | 16 | 192 | 0.0 | 3.2 | 0.00 | 0.00 | 0.00 | 95 | 1013.0 |
| 20260905020410 | 16 | 221 | 1.6 | 3.2 | 0.00 | 0.00 | 0.00 | 95 | 1012.9 |
| 20260905020143 | 16 | 190 | 0.0 | 3.2 | 0.00 | 0.00 | 0.00 | 95 | 1013.1 |
| 20260905020127 | 16 | 200 | 0.0 | 3.2 | 0.00 | 0.00 | 0.00 | 95 | 1012.9 |
| 20260905020112 | 16 | 194 | 0.0 | 3.2 | 0.00 | 0.00 | 0.00 | 95 | 1012.9 |
| 20260905020056 | 16 | 186 | 0.0 | 3.2 | 0.00 | 0.00 | 0.00 | 95 | 1012.9 |
| 20260905020032 | 16 | 200 | 0.0 | 3.2 | 0.00 | 0.00 | 0.00 | 95 | 1013.0 |
| 20260905020017 | 16 | 190 | 0.0 | 3.2 | 0.00 | 0.00 | 0.00 | 95 | 1012.6 |
| 20260905015520 | 16 | 192 | 0.0 | 1.6 | 0.00 | 0.00 | 0.00 | 95 | 1012.8 |
| 20260905015502 | 16 | 190 | 0.0 | 1.6 | 0.00 | 0.00 | 0.00 | 95 | 1012.8 |
| 20260905015237 | 16 | 198 | 0.0 | 1.6 | 0.00 | 0.00 | 0.00 | 95 | 1013.1 |
| 20260905015223 | 16 | 215 | 1.6 | 1.6 | 0.00 | 0.00 | 0.00 | 95 | 1012.8 |
| 20260905015207 | 16 | 204 | 0.0 | 1.6 | 0.00 | 0.00 | 0.00 | 95 | 1013.0 |
| 20260905015151 | 16 | 200 | 0.0 | 1.6 | 0.00 | 0.00 | 0.00 | 95 | 1013.0 |
| 20260905014922 | 16 | 192 | 0.0 | 1.6 | 0.00 | 0.00 | 0.00 | 95 | 1012.8 |
| 20260905014907 | 16 | 195 | 0.0 | 1.6 | 0.00 | 0.00 | 0.00 | 95 | 1013.0 |
| 20260905014850 | 16 | 188 | 0.0 | 1.6 | 0.00 | 0.00 | 0.00 | 95 | 1012.8 |
| 20260905014834 | 16 | 181 | 0.0 | 1.6 | 0.00 | 0.00 | 0.00 | 95 | 1012.7 |
| 20260905014818 | 16 | 211 | 0.0 | 1.6 | 0.00 | 0.00 | 0.00 | 95 | 1013.0 |
| 20260905014756 | 16 | 196 | 0.0 | 4.8 | 0.00 | 0.00 | 0.00 | 95 | 1012.9 |
| 20260905014741 | 16 | 196 | 0.0 | 4.8 | 0.00 | 0.00 | 0.00 | 95 | 1012.9 |
| 20260905014725 | 16 | 192 | 0.0 | 4.8 | 0.00 | 0.00 | 0.00 | 95 | 1012.7 |
| 20260905014710 | 16 | 197 | 0.0 | 4.8 | 0.00 | 0.00 | 0.00 | 95 | 1012.8 |
| 20260905014654 | 16 | 196 | 0.0 | 4.8 | 0.00 | 0.00 | 0.00 | 95 | 1012.6 |
| 20260905014205 | 16 | 192 | 0.0 | 4.8 | 0.00 | 0.00 | 0.00 | 95 | 1012.9 |
| 20260905013930 | 16 | 200 | 0.0 | 4.8 | 0.00 | 0.00 | 0.00 | 95 | 1012.4 |
| 20260905013645 | 16 | 199 | 0.0 | 1.6 | 0.00 | 0.00 | 0.00 | 95 | 1012.4 |
| 20260905013410 | 16 | 194 | 0.0 | 1.6 | 0.00 | 0.00 | 0.00 | 95 | 1012.2 |
| 20260905012904 | 16 | 199 | 0.0 | 0.0 | 0.00 | 0.00 | 0.00 | 95 | 1012.3 |
| 20260905012629 | 16 | 199 | 0.0 | 0.0 | 0.00 | 0.00 | 0.00 | 95 | 1012.2 |
| 20260905012350 | 16 | 198 | 0.0 | 0.0 | 0.00 | 0.00 | 0.00 | 95 | 1012.2 |
| 20260905012328 | 16 | 199 | 0.0 | 0.0 | 0.00 | 0.00 | 0.00 | 95 | 1012.3 |
| 20260905012009 | 16 | 196 | 0.0 | 0.0 | 0.00 | 0.00 | 0.00 | 95 | 1012.3 |
| 20260905011909 | 16 | 199 | 0.0 | 0.0 | 0.00 | 0.00 | 0.00 | 95 | 1012.2 |
| 20260905011810 | 16 | 198 | 0.0 | 1.6 | 0.00 | 0.00 | 0.00 | 94 | 1012.4 |
| 20260905011711 | 16 | 200 | 0.0 | 1.6 | 0.00 | 0.00 | 0.00 | 94 | 1012.3 |
| 20260905011644 | 16 | 223 | 0.0 | 1.6 | 0.00 | 0.00 | 0.00 | 94 | 1012.3 |
| 20260905011629 | 16 | 200 | 0.0 | 1.6 | 0.00 | 0.00 | 0.00 | 94 | 1012.6 |
| 20260905011310 | 16 | 198 | 0.0 | 1.6 | 0.00 | 0.00 | 0.00 | 94 | 1012.3 |
| 20260905011210 | 16 | 198 | 0.0 | 1.6 | 0.00 | 0.00 | 0.00 | 94 | 1012.2 |
| 20260905011110 | 16 | 202 | 0.0 | 1.6 | 0.00 | 0.00 | 0.00 | 94 | 1012.4 |
| 20260905011009 | 16 | 206 | 0.0 | 1.6 | 0.00 | 0.00 | 0.00 | 94 | 1012.4 |
| 20260905010945 | 16 | 193 | 0.0 | 1.6 | 0.00 | 0.00 | 0.00 | 94 | 1012.6 |
| 20260905010929 | 16 | 204 | 0.0 | 1.6 | 0.00 | 0.00 | 0.00 | 93 | 1012.5 |
| 20260905010905 | 16 | 197 | 0.0 | 1.6 | 0.00 | 0.00 | 0.00 | 93 | 1012.5 |
| 20260905010630 | 16 | 190 | 0.0 | 1.6 | 0.00 | 0.00 | 0.00 | 93 | 1012.4 |
| 20260905010309 | 16 | 198 | 0.0 | 1.6 | 0.00 | 0.00 | 0.00 | 93 | 1012.2 |
| 20260905010221 | 16 | 203 | 0.0 | 1.6 | 0.00 | 0.00 | 0.00 | 92 | 1012.6 |
| 20260905010145 | 16 | 188 | 0.0 | 1.6 | 0.00 | 0.00 | 0.00 | 92 | 1012.4 |
| 20260905010129 | 16 | 196 | 0.0 | 1.6 | 0.00 | 0.00 | 0.00 | 92 | 1012.6 |
| 20260905005810 | 16 | 196 | 0.0 | 3.2 | 0.00 | 0.00 | 0.00 | 92 | 1012.3 |
| 20260905005709 | 16 | 196 | 0.0 | 3.2 | 0.00 | 0.00 | 0.00 | 91 | 1012.3 |
| 20260905005609 | 16 | 198 | 0.0 | 3.2 | 0.00 | 0.00 | 0.00 | 91 | 1012.4 |
| 20260905005510 | 16 | 203 | 0.0 | 3.2 | 0.00 | 0.00 | 0.00 | 91 | 1012.6 |
| 20260905005409 | 16 | 194 | 0.0 | 3.2 | 0.00 | 0.00 | 0.00 | 91 | 1012.5 |
| 20260905005309 | 16 | 193 | 0.0 | 3.2 | 0.00 | 0.00 | 0.00 | 90 | 1012.4 |
| 20260905005222 | 16 | 181 | 0.0 | 3.2 | 0.00 | 0.00 | 0.00 | 90 | 1012.4 |
| 20260905005144 | 17 | 187 | 0.0 | 3.2 | 0.00 | 0.00 | 0.00 | 89 | 1012.6 |
| 20260905005129 | 17 | 200 | 0.0 | 3.2 | 0.00 | 0.00 | 0.00 | 89 | 1012.6 |
| 20260905004810 | 17 | 159 | 0.0 | 1.6 | 0.00 | 0.00 | 0.00 | 87 | 1012.3 |
| 20260905004707 | 17 | 184 | 0.0 | 0.0 | 0.00 | 0.00 | 0.00 | 87 | 1012.4 |
| 20260905004337 | 17 | 33 | 1.6 | 4.8 | 0.00 | 0.00 | 0.00 | 84 | 1012.6 |
| 20260905004324 | 17 | 209 | 1.6 | 3.2 | 0.00 | 0.00 | 0.00 | 84 | 1012.6 |
| 20260905004315 | 17 | 205 | 1.6 | 3.2 | 0.00 | 0.00 | 0.00 | 84 | 1012.7 |
| 20260905003953 | 17 | 221 | 1.6 | 3.2 | 0.00 | 0.00 | 0.00 | 83 | 1012.2 |
| 20260905003853 | 17 | 127 | 0.0 | 4.8 | 0.00 | 0.00 | 0.00 | 83 | 1012.1 |
| 20260905003828 | 17 | 202 | 0.0 | 4.8 | 0.00 | 0.00 | 0.00 | 82 | 1012.4 |
| 20260905003820 | 17 | 195 | 0.0 | 4.8 | 0.00 | 0.00 | 0.00 | 83 | 1012.2 |
| 20260905003807 | 17 | 190 | 0.0 | 4.8 | 0.00 | 0.00 | 0.00 | 83 | 1012.2 |
| 20260905003755 | 17 | 189 | 1.6 | 4.8 | 0.00 | 0.00 | 0.00 | 83 | 1012.0 |
| 20260905003739 | 17 | 165 | 0.0 | 4.8 | 0.00 | 0.00 | 0.00 | 83 | 1011.8 |
| 20260905003515 | 17 | 171 | 0.0 | 4.8 | 0.00 | 0.00 | 0.00 | 83 | 1012.0 |
| 20260905003459 | 17 | 191 | 1.6 | 4.8 | 0.00 | 0.00 | 0.00 | 82 | 1012.1 |
| 20260905003443 | 17 | 198 | 0.0 | 4.8 | 0.00 | 0.00 | 0.00 | 82 | 1012.4 |
| 20260905003153 | 17 | 193 | 0.0 | 4.8 | 0.00 | 0.00 | 0.00 | 82 | 1012.2 |
| 20260905003053 | 17 | 178 | 0.0 | 6.4 | 0.00 | 0.00 | 0.00 | 82 | 1012.1 |
| 20260905002953 | 17 | 192 | 0.0 | 9.7 | 0.00 | 0.00 | 0.00 | 82 | 1012.3 |
| 20260905002853 | 17 | 191 | 1.6 | 9.7 | 0.00 | 0.00 | 0.00 | 81 | 1012.0 |
| 20260905002753 | 17 | 216 | 1.6 | 9.7 | 0.00 | 0.00 | 0.00 | 81 | 1012.1 |
| 20260905002725 | 17 | 68 | 3.2 | 9.7 | 0.00 | 0.00 | 0.00 | 81 | 1012.1 |
| 20260905002653 | 18 | 200 | 3.2 | 9.7 | 0.00 | 0.00 | 0.00 | 81 | 1012.3 |
| 20260905002553 | 18 | 199 | 0.0 | 9.7 | 0.00 | 0.00 | 0.00 | 81 | 1012.2 |
| 20260905002453 | 18 | 196 | 0.0 | 9.7 | 0.00 | 0.00 | 0.00 | 81 | 1012.2 |
| 20260905002353 | 18 | 207 | 0.0 | 9.7 | 0.00 | 0.00 | 0.00 | 80 | 1012.2 |
| 20260905002327 | 18 | 150 | 1.6 | 9.7 | 0.00 | 0.00 | 0.00 | 80 | 1012.2 |
| 20260905002314 | 18 | 177 | 0.0 | 9.7 | 0.00 | 0.00 | 0.00 | 80 | 1012.2 |
| 20260905002306 | 18 | 211 | 3.2 | 9.7 | 0.00 | 0.00 | 0.00 | 80 | 1012.2 |
| 20260905002248 | 18 | 186 | 0.0 | 4.8 | 0.00 | 0.00 | 0.00 | 80 | 1012.0 |
| 20260905002233 | 18 | 200 | 0.0 | 4.8 | 0.00 | 0.00 | 0.00 | 80 | 1011.8 |
| 20260905001726 | 18 | 213 | 3.2 | 4.8 | 0.00 | 0.00 | 0.00 | 79 | 1011.7 |
| 20260905001653 | 18 | 211 | 0.0 | 4.8 | 0.00 | 0.00 | 0.00 | 79 | 1012.0 |
| 20260905001553 | 18 | 195 | 0.0 | 4.8 | 0.00 | 0.00 | 0.00 | 79 | 1011.6 |
| 20260905001453 | 18 | 146 | 1.6 | 4.8 | 0.00 | 0.00 | 0.00 | 79 | 1011.8 |
| 20260905001414 | 18 | 232 | 3.2 | 4.8 | 0.00 | 0.00 | 0.00 | 79 | 1011.7 |
| 20260905001358 | 18 | 151 | 3.2 | 4.8 | 0.00 | 0.00 | 0.00 | 79 | 1011.9 |
| 20260905001346 | 18 | 55 | 1.6 | 4.8 | 0.00 | 0.00 | 0.00 | 79 | 1011.9 |
| 20260905001336 | 18 | 206 | 1.6 | 4.8 | 0.00 | 0.00 | 0.00 | 78 | 1011.8 |
| 20260905001101 | 18 | 58 | 1.6 | 4.8 | 0.00 | 0.00 | 0.00 | 78 | 1012.1 |
| 20260905000741 | 18 | 147 | 0.0 | 4.8 | 0.00 | 0.00 | 0.00 | 78 | 1012.3 |
| 20260905000726 | 18 | 193 | 0.0 | 4.8 | 0.00 | 0.00 | 0.00 | 78 | 1012.3 |
| 20260905000643 | 18 | 177 | 1.6 | 6.4 | 0.00 | 0.00 | 0.00 | 78 | 1012.1 |
| 20260905000541 | 18 | 181 | 1.6 | 6.4 | 0.00 | 0.00 | 0.00 | 78 | 1012.1 |
| 20260905000441 | 18 | 202 | 0.0 | 6.4 | 0.00 | 0.00 | 0.00 | 77 | 1012.0 |
| 20260905000341 | 18 | 194 | 0.0 | 6.4 | 0.00 | 0.00 | 0.00 | 77 | 1011.9 |
| 20260905000241 | 18 | 273 | 0.0 | 6.4 | 0.00 | 0.00 | 0.00 | 77 | 1011.9 |
| 20260905000226 | 18 | 196 | 0.0 | 6.4 | 0.00 | 0.00 | 0.00 | 77 | 1011.9 |
| 20260905000142 | 18 | 196 | 0.0 | 6.4 | 0.00 | 0.00 | 0.00 | 77 | 1012.1 |
| 20260905000042 | 18 | 58 | 3.2 | 6.4 | 0.00 | 0.00 | 0.00 | 77 | 1011.9 |
| 20260904235942 | 18 | 198 | 0.0 | 6.4 | 0.00 | 0.00 | 0.00 | 77 | 1011.7 |
| 20260904235842 | 18 | 155 | 0.0 | 6.4 | 0.00 | 0.00 | 0.00 | 77 | 1011.8 |
| 20260904235724 | 18 | 65 | 4.8 | 6.4 | 0.00 | 0.00 | 0.00 | 77 | 1011.8 |
| 20260904235641 | 18 | 204 | 0.0 | 6.4 | 0.00 | 0.00 | 0.00 | 77 | 1011.9 |
| 20260904235541 | 18 | 196 | 0.0 | 6.4 | 0.00 | 0.00 | 0.00 | 77 | 1011.8 |
| 20260904235441 | 18 | 143 | 1.6 | 6.4 | 0.00 | 0.00 | 0.00 | 76 | 1011.9 |
| 20260904235342 | 18 | 173 | 1.6 | 6.4 | 0.00 | 0.00 | 0.00 | 76 | 1011.8 |
| 20260904235241 | 18 | 207 | 1.6 | 6.4 | 0.00 | 0.00 | 0.00 | 76 | 1012.1 |
| 20260904235224 | 18 | 217 | 1.6 | 6.4 | 0.00 | 0.00 | 0.00 | 76 | 1012.1 |
| 20260904235141 | 18 | 138 | 1.6 | 6.4 | 0.00 | 0.00 | 0.00 | 76 | 1011.9 |
| 20260904235041 | 18 | 67 | 3.2 | 6.4 | 0.00 | 0.00 | 0.00 | 76 | 1012.1 |
| 20260904235021 | 18 | 222 | 3.2 | 6.4 | 0.00 | 0.00 | 0.00 | 76 | 1011.8 |
| 20260904235013 | 18 | 185 | 1.6 | 6.4 | 0.00 | 0.00 | 0.00 | 76 | 1011.8 |
| 20260904234957 | 18 | 204 | 1.6 | 6.4 | 0.00 | 0.00 | 0.00 | 76 | 1011.8 |
| 20260904234942 | 18 | 212 | 1.6 | 6.4 | 0.00 | 0.00 | 0.00 | 76 | 1011.8 |
| 20260904234640 | 18 | 252 | 3.2 | 6.4 | 0.00 | 0.00 | 0.00 | 75 | 1011.9 |
| 20260904234540 | 18 | 199 | 3.2 | 6.4 | 0.00 | 0.00 | 0.00 | 76 | 1011.7 |
| 20260904234441 | 18 | 116 | 3.2 | 6.4 | 0.00 | 0.00 | 0.00 | 75 | 1011.6 |
| 20260904234340 | 18 | 100 | 0.0 | 4.8 | 0.00 | 0.00 | 0.00 | 75 | 1011.7 |
| 20260904234241 | 18 | 178 | 0.0 | 4.8 | 0.00 | 0.00 | 0.00 | 75 | 1011.6 |
| 20260904234224 | 18 | 193 | 1.6 | 4.8 | 0.00 | 0.00 | 0.00 | 75 | 1011.6 |
| 20260904234159 | 18 | 214 | 3.2 | 4.8 | 0.00 | 0.00 | 0.00 | 75 | 1011.4 |
| 20260904234143 | 18 | 189 | 0.0 | 3.2 | 0.00 | 0.00 | 0.00 | 75 | 1011.6 |
| 20260904234127 | 18 | 300 | 1.6 | 3.2 | 0.00 | 0.00 | 0.00 | 75 | 1011.5 |
| 20260904234112 | 18 | 191 | 0.0 | 3.2 | 0.00 | 0.00 | 0.00 | 75 | 1011.7 |
| 20260904234043 | 18 | 169 | 0.0 | 3.2 | 0.00 | 0.00 | 0.00 | 75 | 1011.9 |
| 20260904234031 | 18 | 202 | 1.6 | 3.2 | 0.00 | 0.00 | 0.00 | 75 | 1011.9 |
| 20260904233756 | 18 | 197 | 0.0 | 3.2 | 0.00 | 0.00 | 0.00 | 75 | 1011.8 |
| 20260904233740 | 18 | 206 | 0.0 | 3.2 | 0.00 | 0.00 | 0.00 | 75 | 1011.9 |
| 20260904233508 | 18 | 200 | 1.6 | 3.2 | 0.00 | 0.00 | 0.00 | 75 | 1011.8 |
| 20260904233238 | 18 | 148 | 1.6 | 3.2 | 0.00 | 0.00 | 0.00 | 75 | 1011.8 |
| 20260904233222 | 18 | 58 | 1.6 | 3.2 | 0.00 | 0.00 | 0.00 | 75 | 1011.7 |
| 20260904233205 | 18 | 157 | 0.0 | 3.2 | 0.00 | 0.00 | 0.00 | 75 | 1011.5 |
| 20260904233148 | 18 | 193 | 1.6 | 3.2 | 0.00 | 0.00 | 0.00 | 75 | 1011.9 |
| 20260904233136 | 18 | 109 | 0.0 | 3.2 | 0.00 | 0.00 | 0.00 | 75 | 1011.9 |
| 20260904232404 | 19 | 196 | 0.0 | 4.8 | 0.00 | 0.00 | 0.00 | 75 | 1011.4 |
| 20260904232357 | 18 | 199 | 0.0 | 3.2 | 0.00 | 0.00 | 0.00 | 75 | 1012.0 |
| 20260904232341 | 18 | 170 | 0.0 | 3.2 | 0.00 | 0.00 | 0.00 | 75 | 1011.8 |
| 20260904232329 | 18 | 199 | 0.0 | 3.2 | 0.00 | 0.00 | 0.00 | 75 | 1011.8 |
| 20260904232320 | 18 | 199 | 0.0 | 3.2 | 0.00 | 0.00 | 0.00 | 75 | 1011.8 |
| 20260904232056 | 18 | 201 | 0.0 | 3.2 | 0.00 | 0.00 | 0.00 | 75 | 1011.5 |
| 20260904232039 | 18 | 61 | 3.2 | 3.2 | 0.00 | 0.00 | 0.00 | 75 | 1011.7 |
| 20260904232024 | 19 | 207 | 0.0 | 4.8 | 0.00 | 0.00 | 0.00 | 75 | 1011.7 |
| 20260904232008 | 19 | 215 | 0.0 | 4.8 | 0.00 | 0.00 | 0.00 | 75 | 1011.4 |
| 20260904231739 | 19 | 188 | 0.0 | 4.8 | 0.00 | 0.00 | 0.00 | 75 | 1011.5 |
| 20260904231723 | 19 | 190 | 0.0 | 4.8 | 0.00 | 0.00 | 0.00 | 75 | 1011.6 |
| 20260904231448 | 19 | 188 | 0.0 | 4.8 | 0.00 | 0.00 | 0.00 | 75 | 1011.4 |
| 20260904231433 | 19 | 191 | 0.0 | 4.8 | 0.00 | 0.00 | 0.00 | 75 | 1011.3 |
| 20260904231419 | 19 | 194 | 0.0 | 4.8 | 0.00 | 0.00 | 0.00 | 75 | 1011.3 |
| 20260904231409 | 19 | 202 | 0.0 | 4.8 | 0.00 | 0.00 | 0.00 | 75 | 1011.4 |
| 20260904230828 | 19 | 208 | 1.6 | 4.8 | 0.00 | 0.00 | 0.00 | 75 | 1011.1 |
| 20260904230728 | 19 | 36 | 1.6 | 3.2 | 0.00 | 0.00 | 0.00 | 75 | 1011.3 |
| 20260904230712 | 19 | 173 | 1.6 | 3.2 | 0.00 | 0.00 | 0.00 | 75 | 1011.3 |
| 20260904230628 | 19 | 166 | 1.6 | 3.2 | 0.00 | 0.00 | 0.00 | 75 | 1011.3 |
| 20260904230528 | 19 | 194 | 1.6 | 3.2 | 0.00 | 0.00 | 0.00 | 75 | 1011.4 |
| 20260904230429 | 19 | 206 | 0.0 | 3.2 | 0.00 | 0.00 | 0.00 | 75 | 1011.2 |
| 20260904230328 | 19 | 126 | 0.0 | 3.2 | 0.00 | 0.00 | 0.00 | 75 | 1011.4 |
| 20260904230212 | 19 | 191 | 0.0 | 3.2 | 0.00 | 0.00 | 0.00 | 74 | 1011.5 |
| 20260904230134 | 19 | 203 | 0.0 | 3.2 | 0.00 | 0.00 | 0.00 | 74 | 1011.3 |
| 20260904230118 | 19 | 201 | 0.0 | 3.2 | 0.00 | 0.00 | 0.00 | 74 | 1011.2 |
| 20260904225929 | 19 | 190 | 0.0 | 3.2 | 0.00 | 0.00 | 0.00 | 74 | 1011.3 |
| 20260904225830 | 19 | 203 | 0.0 | 3.2 | 0.00 | 0.00 | 0.00 | 74 | 1011.3 |
| 20260904225712 | 19 | 203 | 0.0 | 3.2 | 0.00 | 0.00 | 0.00 | 74 | 1011.1 |
| 20260904225628 | 19 | 211 | 0.0 | 3.2 | 0.00 | 0.00 | 0.00 | 74 | 1011.3 |
| 20260904225529 | 19 | 197 | 0.0 | 3.2 | 0.00 | 0.00 | 0.00 | 74 | 1011.3 |
| 20260904225506 | 19 | 220 | 3.2 | 3.2 | 0.00 | 0.00 | 0.00 | 73 | 1011.2 |
| 20260904225450 | 19 | 205 | 1.6 | 3.2 | 0.00 | 0.00 | 0.00 | 73 | 1011.5 |
| 20260904225220 | 19 | 273 | 0.0 | 11.3 | 0.00 | 0.00 | 0.00 | 73 | 1011.3 |
| 20260904225215 | 19 | 195 | 0.0 | 3.2 | 0.00 | 0.00 | 0.00 | 73 | 1011.2 |
| 20260904225204 | 19 | 128 | 3.2 | 3.2 | 0.00 | 0.00 | 0.00 | 73 | 1011.2 |
| 20260904225149 | 19 | 184 | 1.6 | 9.7 | 0.00 | 0.00 | 0.00 | 73 | 1011.4 |
| 20260904225133 | 19 | 153 | 1.6 | 9.7 | 0.00 | 0.00 | 0.00 | 73 | 1011.3 |
| 20260904225118 | 19 | 157 | 1.6 | 9.7 | 0.00 | 0.00 | 0.00 | 73 | 1011.2 |
| 20260904225102 | 19 | 201 | 0.0 | 11.3 | 0.00 | 0.00 | 0.00 | 73 | 1011.3 |
| 20260904224528 | 19 | 201 | 0.0 | 16.1 | 0.00 | 0.00 | 0.00 | 73 | 1011.1 |
| 20260904224428 | 19 | 249 | 3.2 | 16.1 | 0.00 | 0.00 | 0.00 | 73 | 1011.1 |
| 20260904224328 | 19 | 206 | 1.6 | 16.1 | 0.00 | 0.00 | 0.00 | 74 | 1011.1 |
| 20260904224212 | 19 | 151 | 1.6 | 16.1 | 0.00 | 0.00 | 0.00 | 74 | 1011.2 |
| 20260904224128 | 19 | 74 | 3.2 | 16.1 | 0.00 | 0.00 | 0.00 | 74 | 1011.2 |
| 20260904224028 | 19 | 59 | 4.8 | 16.1 | 0.00 | 0.00 | 0.00 | 74 | 1010.9 |
| 20260904223930 | 19 | 197 | 1.6 | 16.1 | 0.00 | 0.00 | 0.00 | 75 | 1011.3 |
| 20260904223830 | 20 | 168 | 0.0 | 16.1 | 0.00 | 0.00 | 0.00 | 75 | 1011.0 |
| 20260904223728 | 20 | 248 | 4.8 | 16.1 | 0.00 | 0.00 | 0.00 | 77 | 1011.1 |
| 20260904223712 | 20 | 143 | 1.6 | 6.4 | 0.00 | 0.00 | 0.00 | 77 | 1011.1 |
| 20260904223628 | 20 | 27 | 3.2 | 6.4 | 0.00 | 0.00 | 0.00 | 77 | 1010.7 |
| 20260904223603 | 20 | 107 | 1.6 | 3.2 | 0.00 | 0.00 | 0.00 | 77 | 1010.8 |
| 20260904223554 | 20 | 326 | 3.2 | 4.8 | 0.00 | 0.00 | 0.00 | 77 | 1010.8 |
| 20260904223539 | 20 | 160 | 0.0 | 4.8 | 0.00 | 0.00 | 0.00 | 78 | 1011.1 |
| 20260904223523 | 20 | 139 | 1.6 | 4.8 | 0.00 | 0.00 | 0.00 | 77 | 1010.9 |
| 20260904223251 | 20 | 196 | 0.0 | 3.2 | 0.00 | 0.00 | 0.00 | 77 | 1011.0 |
| 20260904223240 | 20 | 207 | 1.6 | 3.2 | 0.00 | 0.00 | 0.00 | 77 | 1010.8 |
| 20260904223224 | 20 | 191 | 0.0 | 3.2 | 0.00 | 0.00 | 0.00 | 77 | 1010.9 |
| 20260904223208 | 20 | 256 | 0.0 | 3.2 | 0.00 | 0.00 | 0.00 | 77 | 1010.9 |
| 20260904222931 | 20 | 107 | 1.6 | 3.2 | 0.00 | 0.00 | 0.00 | 77 | 1010.8 |
| 20260904222628 | 20 | 109 | 0.0 | 3.2 | 0.00 | 0.00 | 0.00 | 77 | 1010.8 |
| 20260904222604 | 20 | 196 | 0.0 | 3.2 | 0.00 | 0.00 | 0.00 | 77 | 1010.8 |
| 20260904222548 | 20 | 237 | 1.6 | 3.2 | 0.00 | 0.00 | 0.00 | 77 | 1010.8 |
| 20260904222532 | 20 | 183 | 1.6 | 3.2 | 0.00 | 0.00 | 0.00 | 77 | 1010.6 |
| 20260904222300 | 20 | 200 | 0.0 | 3.2 | 0.00 | 0.00 | 0.00 | 76 | 1010.6 |
| 20260904222249 | 20 | 212 | 0.0 | 3.2 | 0.00 | 0.00 | 0.00 | 76 | 1010.6 |
| 20260904222003 | 20 | 143 | 0.0 | 3.2 | 0.00 | 0.00 | 0.00 | 77 | 1010.5 |
| 20260904221948 | 20 | 239 | 1.6 | 3.2 | 0.00 | 0.00 | 0.00 | 76 | 1010.4 |
| 20260904221712 | 20 | 73 | 0.0 | 3.2 | 0.00 | 0.00 | 0.00 | 76 | 1010.5 |
| 20260904221629 | 20 | 203 | 1.6 | 3.2 | 0.00 | 0.00 | 0.00 | 76 | 1010.4 |
| 20260904221604 | 20 | 207 | 1.6 | 3.2 | 0.00 | 0.00 | 0.00 | 76 | 1010.2 |
| 20260904221549 | 20 | 188 | 0.0 | 3.2 | 0.00 | 0.00 | 0.00 | 76 | 1010.6 |
| 20260904221229 | 20 | 199 | 0.0 | 3.2 | 0.00 | 0.00 | 0.00 | 76 | 1010.4 |
| 20260904221216 | 20 | 188 | 0.0 | 3.2 | 0.00 | 0.00 | 0.00 | 76 | 1010.4 |
| 20260904221206 | 21 | 200 | 1.6 | 3.2 | 0.00 | 0.00 | 0.00 | 76 | 1010.4 |
| 20260904221149 | 21 | 180 | 0.0 | 3.2 | 0.00 | 0.00 | 0.00 | 76 | 1010.5 |
| 20260904220914 | 21 | 192 | 0.0 | 3.2 | 0.00 | 0.00 | 0.00 | 77 | 1010.5 |
| 20260904220858 | 21 | 246 | 1.6 | 3.2 | 0.00 | 0.00 | 0.00 | 77 | 1010.2 |
| 20260904220845 | 21 | 103 | 1.6 | 3.2 | 0.00 | 0.00 | 0.00 | 77 | 1010.2 |
| 20260904220528 | 21 | 133 | 0.0 | 3.2 | 0.00 | 0.00 | 0.00 | 76 | 1010.2 |
| 20260904220510 | 21 | 197 | 0.0 | 6.4 | 0.00 | 0.00 | 0.00 | 76 | 1010.5 |
| 20260904220501 | 21 | 186 | 1.6 | 3.2 | 0.00 | 0.00 | 0.00 | 76 | 1010.2 |
| 20260904220446 | 21 | 212 | 1.6 | 6.4 | 0.00 | 0.00 | 0.00 | 76 | 1010.6 |
| 20260904220430 | 21 | 197 | 0.0 | 6.4 | 0.00 | 0.00 | 0.00 | 76 | 1010.5 |
| 20260904220128 | 21 | 180 | 0.0 | 6.4 | 0.00 | 0.00 | 0.00 | 76 | 1010.6 |
| 20260904220029 | 21 | 119 | 1.6 | 6.4 | 0.00 | 0.00 | 0.00 | 76 | 1010.2 |
| 20260904215928 | 21 | 199 | 0.0 | 6.4 | 0.00 | 0.00 | 0.00 | 76 | 1010.0 |
| 20260904215829 | 21 | 201 | 0.0 | 6.4 | 0.00 | 0.00 | 0.00 | 75 | 1010.4 |
| 20260904215728 | 21 | 196 | 1.6 | 6.4 | 0.00 | 0.00 | 0.00 | 75 | 1010.2 |
| 20260904215712 | 21 | 82 | 0.0 | 6.4 | 0.00 | 0.00 | 0.00 | 75 | 1010.2 |
| 20260904215628 | 21 | 194 | 0.0 | 6.4 | 0.00 | 0.00 | 0.00 | 75 | 1010.1 |
| 20260904215529 | 21 | 192 | 1.6 | 6.4 | 0.00 | 0.00 | 0.00 | 75 | 1009.9 |
| 20260904215428 | 21 | 183 | 0.0 | 6.4 | 0.00 | 0.00 | 0.00 | 75 | 1009.9 |
| 20260904215403 | 21 | 28 | 1.6 | 4.8 | 0.00 | 0.00 | 0.00 | 75 | 1010.0 |
| 20260904215347 | 21 | 78 | 1.6 | 4.8 | 0.00 | 0.00 | 0.00 | 75 | 1009.8 |
| 20260904215335 | 21 | 94 | 1.6 | 4.8 | 0.00 | 0.00 | 0.00 | 75 | 1009.8 |
| 20260904215325 | 22 | 166 | 0.0 | 4.8 | 0.00 | 0.00 | 0.00 | 75 | 1009.7 |
| 20260904215309 | 22 | 203 | 0.0 | 6.4 | 0.00 | 0.00 | 0.00 | 75 | 1009.9 |
| 20260904214729 | 22 | 172 | 1.6 | 11.3 | 0.00 | 0.00 | 0.00 | 75 | 1009.8 |
| 20260904214713 | 22 | 214 | 1.6 | 11.3 | 0.00 | 0.00 | 0.00 | 75 | 1009.8 |
| 20260904214629 | 22 | 201 | 0.0 | 11.3 | 0.00 | 0.00 | 0.00 | 75 | 1009.9 |
| 20260904214529 | 22 | 190 | 0.0 | 11.3 | 0.00 | 0.00 | 0.00 | 75 | 1009.6 |
| 20260904214429 | 22 | 186 | 0.0 | 11.3 | 0.00 | 0.00 | 0.00 | 74 | 1009.6 |
| 20260904214328 | 22 | 206 | 0.0 | 11.3 | 0.00 | 0.00 | 0.00 | 74 | 1009.7 |
| 20260904214258 | 22 | 301 | 1.6 | 11.3 | 0.00 | 0.00 | 0.00 | 74 | 1009.8 |
| 20260904214248 | 22 | 109 | 3.2 | 11.3 | 0.00 | 0.00 | 0.00 | 74 | 1009.6 |
| 20260904213928 | 22 | 198 | 0.0 | 11.3 | 0.00 | 0.00 | 0.00 | 74 | 1009.7 |
| 20260904213829 | 22 | 22 | 4.8 | 11.3 | 0.00 | 0.00 | 0.00 | 73 | 1009.3 |
| 20260904213728 | 22 | 211 | 1.6 | 6.4 | 0.00 | 0.00 | 0.00 | 73 | 1009.5 |
| 20260904213712 | 22 | 196 | 0.0 | 6.4 | 0.00 | 0.00 | 0.00 | 73 | 1009.5 |
| 20260904213630 | 22 | 204 | 1.6 | 6.4 | 0.00 | 0.00 | 0.00 | 73 | 1009.6 |
| 20260904213528 | 22 | 203 | 0.0 | 6.4 | 0.00 | 0.00 | 0.00 | 73 | 1009.3 |
| 20260904213429 | 22 | 171 | 0.0 | 6.4 | 0.00 | 0.00 | 0.00 | 73 | 1009.7 |
| 20260904213328 | 22 | 192 | 0.0 | 6.4 | 0.00 | 0.00 | 0.00 | 73 | 1009.6 |
| 20260904213310 | 22 | 218 | 1.6 | 6.4 | 0.00 | 0.00 | 0.00 | 73 | 1009.4 |
| 20260904213258 | 22 | 173 | 0.0 | 6.4 | 0.00 | 0.00 | 0.00 | 73 | 1009.4 |
| 20260904213248 | 22 | 104 | 1.6 | 6.4 | 0.00 | 0.00 | 0.00 | 72 | 1009.4 |
| 20260904212928 | 22 | 245 | 0.0 | 4.8 | 0.00 | 0.00 | 0.00 | 72 | 1009.4 |
| 20260904212912 | 22 | 199 | 1.6 | 4.8 | 0.00 | 0.00 | 0.00 | 72 | 1009.5 |
| 20260904212857 | 22 | 130 | 1.6 | 4.8 | 0.00 | 0.00 | 0.00 | 72 | 1009.4 |
| 20260904212843 | 22 | 189 | 1.6 | 4.8 | 0.00 | 0.00 | 0.00 | 72 | 1009.4 |
| 20260904212528 | 22 | 194 | 0.0 | 4.8 | 0.00 | 0.00 | 0.00 | 71 | 1009.5 |
| 20260904212429 | 22 | 190 | 0.0 | 4.8 | 0.00 | 0.00 | 0.00 | 71 | 1009.4 |
| 20260904212328 | 22 | 147 | 1.6 | 4.8 | 0.00 | 0.00 | 0.00 | 71 | 1009.5 |
| 20260904212213 | 22 | 194 | 1.6 | 4.8 | 0.00 | 0.00 | 0.00 | 71 | 1009.2 |
| 20260904212128 | 22 | 164 | 1.6 | 4.8 | 0.00 | 0.00 | 0.00 | 71 | 1009.4 |
| 20260904212029 | 22 | 176 | 1.6 | 4.8 | 0.00 | 0.00 | 0.00 | 70 | 1009.0 |
| 20260904211928 | 23 | 178 | 0.0 | 4.8 | 0.00 | 0.00 | 0.00 | 70 | 1008.6 |
| 20260904211912 | 23 | 201 | 0.0 | 9.7 | 0.00 | 0.00 | 0.00 | 70 | 1008.4 |
| 20260904211857 | 23 | 190 | 0.0 | 9.7 | 0.00 | 0.00 | 0.00 | 69 | 1008.3 |
| 20260904211843 | 23 | 186 | 0.0 | 9.7 | 0.00 | 0.00 | 0.00 | 69 | 1008.3 |
| 20260904211528 | 23 | 171 | 1.6 | 11.3 | 0.00 | 0.00 | 0.00 | 69 | 1008.3 |
| 20260904211429 | 23 | 164 | 3.2 | 11.3 | 0.00 | 0.00 | 0.00 | 69 | 1007.9 |
| 20260904211329 | 23 | 208 | 0.0 | 11.3 | 0.00 | 0.00 | 0.00 | 69 | 1008.1 |
| 20260904211228 | 23 | 238 | 4.8 | 11.3 | 0.00 | 0.00 | 0.00 | 69 | 1008.0 |
| 20260904211213 | 22 | 238 | 4.8 | 11.3 | 0.00 | 0.00 | 0.00 | 69 | 1008.0 |
| 20260904211128 | 22 | 198 | 0.0 | 11.3 | 0.00 | 0.00 | 0.00 | 70 | 1008.2 |
| 20260904211028 | 22 | 184 | 0.0 | 12.9 | 0.00 | 0.00 | 0.00 | 69 | 1008.2 |
| 20260904210929 | 22 | 207 | 1.6 | 12.9 | 0.00 | 0.00 | 0.00 | 69 | 1007.9 |
| 20260904210828 | 22 | 237 | 1.6 | 12.9 | 0.00 | 0.00 | 0.00 | 70 | 1008.0 |
| 20260904210728 | 22 | 129 | 3.2 | 14.5 | 0.00 | 0.00 | 0.00 | 70 | 1008.2 |
| 20260904210712 | 22 | 201 | 0.0 | 14.5 | 0.00 | 0.00 | 0.00 | 70 | 1008.2 |
| 20260904210629 | 22 | 209 | 8.0 | 14.5 | 0.00 | 0.00 | 0.00 | 70 | 1008.1 |
| 20260904210528 | 22 | 269 | 3.2 | 14.5 | 0.00 | 0.00 | 0.00 | 70 | 1008.3 |
| 20260904210428 | 22 | 219 | 0.0 | 14.5 | 0.00 | 0.00 | 0.00 | 70 | 1008.2 |
| 20260904210328 | 22 | 237 | 3.2 | 14.5 | 0.00 | 0.00 | 0.00 | 70 | 1008.3 |
| 20260904210212 | 22 | 240 | 4.8 | 14.5 | 0.00 | 0.00 | 0.00 | 70 | 1008.0 |
| 20260904210128 | 22 | 243 | 6.4 | 14.5 | 0.00 | 0.00 | 0.00 | 70 | 1008.1 |
| 20260904210028 | 22 | 198 | 0.0 | 14.5 | 0.00 | 0.00 | 0.00 | 70 | 1008.2 |
| 20260904205928 | 22 | 328 | 1.6 | 14.5 | 0.00 | 0.00 | 0.00 | 70 | 1008.3 |
| 20260904205828 | 22 | 203 | 0.0 | 16.1 | 0.00 | 0.00 | 0.00 | 70 | 1008.3 |
| 20260904205712 | 22 | 262 | 1.6 | 16.1 | 0.00 | 0.00 | 0.00 | 70 | 1008.5 |
| 20260904205628 | 22 | 219 | 3.2 | 16.1 | 0.00 | 0.00 | 0.00 | 70 | 1008.7 |
| 20260904205528 | 22 | 219 | 0.0 | 16.1 | 0.00 | 0.00 | 0.00 | 70 | 1008.3 |
| 20260904205428 | 22 | 223 | 0.0 | 16.1 | 0.00 | 0.00 | 0.00 | 70 | 1008.4 |
| 20260904205329 | 22 | 206 | 1.6 | 16.1 | 0.00 | 0.00 | 0.00 | 70 | 1008.4 |
| 20260904205301 | 22 | 206 | 0.0 | 16.1 | 0.00 | 0.00 | 0.00 | 70 | 1008.4 |
| 20260904205249 | 22 | 210 | 0.0 | 16.1 | 0.00 | 0.00 | 0.00 | 70 | 1008.4 |
| 20260904205239 | 22 | 242 | 3.2 | 16.1 | 0.00 | 0.00 | 0.00 | 70 | 1008.4 |
| 20260904205224 | 22 | 235 | 1.6 | 16.1 | 0.00 | 0.00 | 0.00 | 70 | 1008.6 |
| 20260904204948 | 22 | 182 | 1.6 | 12.9 | 0.00 | 0.00 | 0.00 | 70 | 1008.4 |
| 20260904204713 | 22 | 256 | 0.0 | 12.9 | 0.00 | 0.00 | 0.00 | 70 | 1008.4 |
| 20260904204628 | 22 | 174 | 0.0 | 12.9 | 0.00 | 0.00 | 0.00 | 70 | 1008.2 |
| 20260904204529 | 22 | 221 | 0.0 | 12.9 | 0.00 | 0.00 | 0.00 | 71 | 1008.3 |
| 20260904204428 | 22 | 187 | 1.6 | 12.9 | 0.00 | 0.00 | 0.00 | 70 | 1008.4 |
| 20260904204328 | 22 | 210 | 1.6 | 12.9 | 0.00 | 0.00 | 0.00 | 71 | 1008.3 |
| 20260904204212 | 22 | 229 | 3.2 | 12.9 | 0.00 | 0.00 | 0.00 | 71 | 1008.3 |
| 20260904204129 | 22 | 215 | 0.0 | 4.8 | 0.00 | 0.00 | 0.00 | 71 | 1008.4 |
| 20260904204028 | 22 | 181 | 1.6 | 4.8 | 0.00 | 0.00 | 0.00 | 71 | 1008.4 |
| 20260904203929 | 22 | 219 | 0.0 | 4.8 | 0.00 | 0.00 | 0.00 | 71 | 1008.1 |
| 20260904203828 | 22 | 200 | 0.0 | 4.8 | 0.00 | 0.00 | 0.00 | 71 | 1008.3 |
| 20260904203729 | 22 | 252 | 1.6 | 6.4 | 0.00 | 0.00 | 0.00 | 71 | 1008.3 |
| 20260904203715 | 22 | 244 | 0.0 | 6.4 | 0.00 | 0.00 | 0.00 | 71 | 1008.3 |
| 20260904203704 | 22 | 208 | 1.6 | 6.4 | 0.00 | 0.00 | 0.00 | 71 | 1008.2 |
| 20260904203648 | 22 | 218 | 1.6 | 6.4 | 0.00 | 0.00 | 0.00 | 71 | 1008.2 |
| 20260904203329 | 22 | 203 | 3.2 | 6.4 | 0.00 | 0.00 | 0.00 | 71 | 1008.1 |
| 20260904203228 | 22 | 196 | 0.0 | 9.7 | 0.00 | 0.00 | 0.00 | 71 | 1007.9 |
| 20260904203212 | 22 | 222 | 3.2 | 9.7 | 0.00 | 0.00 | 0.00 | 71 | 1007.9 |
| 20260904203128 | 22 | 166 | 0.0 | 9.7 | 0.00 | 0.00 | 0.00 | 71 | 1008.1 |
| 20260904203028 | 22 | 136 | 0.0 | 9.7 | 0.00 | 0.00 | 0.00 | 71 | 1008.1 |
| 20260904202928 | 22 | 204 | 0.0 | 9.7 | 0.00 | 0.00 | 0.00 | 71 | 1008.3 |
| 20260904202912 | 22 | 204 | 0.0 | 9.7 | 0.00 | 0.00 | 0.00 | 71 | 1008.2 |
| 20260904202857 | 22 | 205 | 1.6 | 9.7 | 0.00 | 0.00 | 0.00 | 71 | 1008.1 |
| 20260904202843 | 22 | 127 | 0.0 | 9.7 | 0.00 | 0.00 | 0.00 | 71 | 1008.1 |
| 20260904202529 | 22 | 200 | 0.0 | 9.7 | 0.00 | 0.00 | 0.00 | 71 | 1008.0 |
| 20260904202428 | 22 | 71 | 1.6 | 9.7 | 0.00 | 0.00 | 0.00 | 71 | 1008.2 |
| 20260904202328 | 22 | 243 | 3.2 | 9.7 | 0.00 | 0.00 | 0.00 | 71 | 1008.3 |
| 20260904202212 | 22 | 225 | 1.6 | 6.4 | 0.00 | 0.00 | 0.00 | 71 | 1008.2 |
| 20260904202128 | 22 | 230 | 3.2 | 6.4 | 0.00 | 0.00 | 0.00 | 71 | 1008.2 |
| 20260904202030 | 22 | 206 | 3.2 | 6.4 | 0.00 | 0.00 | 0.00 | 71 | 1008.2 |
| 20260904201929 | 22 | 221 | 1.6 | 9.7 | 0.00 | 0.00 | 0.00 | 71 | 1008.2 |
| 20260904201828 | 22 | 238 | 3.2 | 9.7 | 0.00 | 0.00 | 0.00 | 71 | 1008.4 |
| 20260904201729 | 22 | 236 | 1.6 | 9.7 | 0.00 | 0.00 | 0.00 | 71 | 1008.2 |
| 20260904201713 | 22 | 229 | 1.6 | 9.7 | 0.00 | 0.00 | 0.00 | 71 | 1008.2 |
| 20260904201629 | 22 | 183 | 0.0 | 9.7 | 0.00 | 0.00 | 0.00 | 72 | 1008.4 |
| 20260904201528 | 22 | 205 | 0.0 | 9.7 | 0.00 | 0.00 | 0.00 | 72 | 1008.3 |
| 20260904201511 | 22 | 223 | 0.0 | 9.7 | 0.00 | 0.00 | 0.00 | 72 | 1008.3 |
| 20260904201502 | 22 | 214 | 1.6 | 9.7 | 0.00 | 0.00 | 0.00 | 71 | 1008.3 |
| 20260904201445 | 22 | 228 | 0.0 | 9.7 | 0.00 | 0.00 | 0.00 | 72 | 1008.5 |
| 20260904201428 | 22 | 194 | 3.2 | 9.7 | 0.00 | 0.00 | 0.00 | 72 | 1008.3 |
| 20260904201129 | 22 | 170 | 0.0 | 9.7 | 0.00 | 0.00 | 0.00 | 72 | 1008.5 |
| 20260904201030 | 22 | 214 | 3.2 | 6.4 | 0.00 | 0.00 | 0.00 | 72 | 1008.2 |
| 20260904200928 | 22 | 210 | 0.0 | 9.7 | 0.00 | 0.00 | 0.00 | 71 | 1008.4 |
| 20260904200829 | 22 | 211 | 0.0 | 9.7 | 0.00 | 0.00 | 0.00 | 71 | 1008.6 |
| 20260904200728 | 22 | 219 | 1.6 | 9.7 | 0.00 | 0.00 | 0.00 | 72 | 1008.4 |
| 20260904200712 | 22 | 206 | 0.0 | 9.7 | 0.00 | 0.00 | 0.00 | 72 | 1008.4 |
| 20260904200629 | 22 | 206 | 1.6 | 9.7 | 0.00 | 0.00 | 0.00 | 72 | 1008.4 |
| 20260904200528 | 22 | 204 | 0.0 | 9.7 | 0.00 | 0.00 | 0.00 | 72 | 1008.6 |
| 20260904200428 | 22 | 243 | 1.6 | 9.7 | 0.00 | 0.00 | 0.00 | 72 | 1008.6 |
| 20260904200412 | 22 | 234 | 1.6 | 9.7 | 0.00 | 0.00 | 0.00 | 72 | 1008.5 |
| 20260904200343 | 22 | 213 | 3.2 | 9.7 | 0.00 | 0.00 | 0.00 | 72 | 1008.6 |
| 20260904200029 | 22 | 219 | 1.6 | 9.7 | 0.00 | 0.00 | 0.00 | 72 | 1008.4 |
| 20260904195928 | 22 | 234 | 6.4 | 6.4 | 0.00 | 0.00 | 0.00 | 72 | 1008.4 |
| 20260904195829 | 22 | 201 | 0.0 | 6.4 | 0.00 | 0.00 | 0.00 | 72 | 1008.7 |
| 20260904195813 | 22 | 205 | 1.6 | 6.4 | 0.00 | 0.00 | 0.00 | 72 | 1008.4 |
| 20260904195758 | 22 | 222 | 3.2 | 6.4 | 0.00 | 0.00 | 0.00 | 72 | 1008.4 |
| 20260904195748 | 22 | 190 | 0.0 | 6.4 | 0.00 | 0.00 | 0.00 | 72 | 1008.6 |
| 20260904195428 | 22 | 196 | 0.0 | 9.7 | 0.00 | 0.00 | 0.00 | 71 | 1008.7 |
| 20260904195329 | 22 | 199 | 0.0 | 9.7 | 0.00 | 0.00 | 0.00 | 71 | 1008.6 |
| 20260904195229 | 22 | 195 | 0.0 | 11.3 | 0.00 | 0.00 | 0.00 | 71 | 1008.6 |
| 20260904195212 | 22 | 209 | 0.0 | 11.3 | 0.00 | 0.00 | 0.00 | 71 | 1008.6 |
| 20260904195129 | 22 | 223 | 1.6 | 11.3 | 0.00 | 0.00 | 0.00 | 71 | 1008.8 |
| 20260904195028 | 22 | 204 | 0.0 | 11.3 | 0.00 | 0.00 | 0.00 | 71 | 1008.5 |
| 20260904194929 | 22 | 151 | 3.2 | 11.3 | 0.00 | 0.00 | 0.00 | 71 | 1008.5 |
| 20260904194829 | 22 | 184 | 0.0 | 11.3 | 0.00 | 0.00 | 0.00 | 71 | 1008.6 |
| 20260904194729 | 22 | 188 | 0.0 | 11.3 | 0.00 | 0.00 | 0.00 | 71 | 1008.5 |
| 20260904194712 | 22 | 211 | 1.6 | 11.3 | 0.00 | 0.00 | 0.00 | 71 | 1008.5 |
| 20260904194628 | 22 | 233 | 1.6 | 11.3 | 0.00 | 0.00 | 0.00 | 71 | 1008.5 |
| 20260904194604 | 22 | 205 | 0.0 | 11.3 | 0.00 | 0.00 | 0.00 | 71 | 1008.6 |
| 20260904194548 | 22 | 222 | 4.8 | 11.3 | 0.00 | 0.00 | 0.00 | 71 | 1008.7 |
| 20260904194213 | 22 | 234 | 1.6 | 11.3 | 0.00 | 0.00 | 0.00 | 71 | 1008.5 |
| 20260904194203 | 22 | 178 | 0.0 | 11.3 | 0.00 | 0.00 | 0.00 | 71 | 1008.7 |
| 20260904194147 | 22 | 196 | 1.6 | 11.3 | 0.00 | 0.00 | 0.00 | 71 | 1008.7 |
| 20260904193828 | 22 | 192 | 0.0 | 11.3 | 0.00 | 0.00 | 0.00 | 71 | 1008.7 |
| 20260904193728 | 22 | 253 | 4.8 | 14.5 | 0.00 | 0.00 | 0.00 | 71 | 1008.6 |
| 20260904193712 | 22 | 220 | 3.2 | 14.5 | 0.00 | 0.00 | 0.00 | 71 | 1008.6 |
| 20260904193628 | 22 | 203 | 0.0 | 14.5 | 0.00 | 0.00 | 0.00 | 71 | 1008.8 |
| 20260904193528 | 22 | 210 | 3.2 | 17.7 | 0.00 | 0.00 | 0.00 | 71 | 1008.9 |
| 20260904193508 | 22 | 237 | 3.2 | 17.7 | 0.00 | 0.00 | 0.00 | 72 | 1008.7 |
| 20260904193500 | 22 | 221 | 1.6 | 17.7 | 0.00 | 0.00 | 0.00 | 72 | 1008.8 |
| 20260904193444 | 22 | 212 | 1.6 | 17.7 | 0.00 | 0.00 | 0.00 | 72 | 1008.6 |
| 20260904193428 | 22 | 165 | 1.6 | 17.7 | 0.00 | 0.00 | 0.00 | 72 | 1008.7 |
| 20260904193129 | 22 | 201 | 0.0 | 17.7 | 0.00 | 0.00 | 0.00 | 72 | 1008.7 |
| 20260904193022 | 22 | 263 | 1.6 | 17.7 | 0.00 | 0.00 | 0.00 | 72 | 1008.7 |
| 20260904192916 | 22 | 232 | 3.2 | 17.7 | 0.00 | 0.00 | 0.00 | 72 | 1008.7 |
| 20260904192818 | 22 | 231 | 3.2 | 17.7 | 0.00 | 0.00 | 0.00 | 72 | 1008.7 |
| 20260904192716 | 22 | 229 | 3.2 | 17.7 | 0.00 | 0.00 | 0.00 | 72 | 1008.7 |
| 20260904192618 | 22 | 168 | 6.4 | 17.7 | 0.00 | 0.00 | 0.00 | 72 | 1008.8 |
| 20260904192516 | 22 | 257 | 6.4 | 16.1 | 0.00 | 0.00 | 0.00 | 72 | 1008.6 |
| 20260904192416 | 22 | 228 | 4.8 | 16.1 | 0.00 | 0.00 | 0.00 | 72 | 1008.8 |
| 20260904192318 | 22 | 230 | 4.8 | 16.1 | 0.00 | 0.00 | 0.00 | 72 | 1008.6 |
| 20260904192255 | 22 | 217 | 4.8 | 16.1 | 0.00 | 0.00 | 0.00 | 72 | 1008.6 |
| 20260904192240 | 22 | 230 | 1.6 | 16.1 | 0.00 | 0.00 | 0.00 | 72 | 1008.7 |
| 20260904191916 | 22 | 252 | 8.0 | 16.1 | 0.00 | 0.00 | 0.00 | 72 | 1008.7 |
| 20260904191818 | 22 | 231 | 11.3 | 16.1 | 0.00 | 0.00 | 0.00 | 72 | 1008.8 |
| 20260904191716 | 22 | 245 | 3.2 | 11.3 | 0.00 | 0.00 | 0.00 | 72 | 1008.6 |
| 20260904191616 | 22 | 201 | 1.6 | 11.3 | 0.00 | 0.00 | 0.00 | 72 | 1008.9 |
| 20260904191516 | 22 | 262 | 3.2 | 11.3 | 0.00 | 0.00 | 0.00 | 72 | 1008.7 |
| 20260904191416 | 22 | 256 | 3.2 | 11.3 | 0.00 | 0.00 | 0.00 | 72 | 1008.9 |
| 20260904191316 | 22 | 200 | 0.0 | 11.3 | 0.00 | 0.00 | 0.00 | 72 | 1008.7 |
| 20260904191216 | 22 | 211 | 3.2 | 11.3 | 0.00 | 0.00 | 0.00 | 72 | 1008.6 |
| 20260904191116 | 22 | 207 | 3.2 | 11.3 | 0.00 | 0.00 | 0.00 | 72 | 1008.7 |
| 20260904191016 | 22 | 228 | 0.0 | 11.3 | 0.00 | 0.00 | 0.00 | 72 | 1008.9 |
| 20260904190917 | 22 | 206 | 0.0 | 11.3 | 0.00 | 0.00 | 0.00 | 72 | 1008.8 |
| 20260904190817 | 22 | 230 | 3.2 | 11.3 | 0.00 | 0.00 | 0.00 | 72 | 1008.9 |
| 20260904190716 | 22 | 262 | 3.2 | 9.7 | 0.00 | 0.00 | 0.00 | 72 | 1009.1 |
| 20260904190615 | 22 | 185 | 1.6 | 9.7 | 0.00 | 0.00 | 0.00 | 72 | 1008.9 |
| 20260904190551 | 22 | 200 | 0.0 | 9.7 | 0.00 | 0.00 | 0.00 | 72 | 1008.8 |
| 20260904190536 | 22 | 224 | 1.6 | 9.7 | 0.00 | 0.00 | 0.00 | 72 | 1009.0 |
| 20260904190216 | 22 | 267 | 1.6 | 9.7 | 0.00 | 0.00 | 0.00 | 72 | 1009.0 |
| 20260904190117 | 22 | 216 | 1.6 | 9.7 | 0.00 | 0.00 | 0.00 | 72 | 1008.8 |
| 20260904190031 | 22 | 205 | 0.0 | 4.8 | 0.00 | 0.00 | 0.00 | 74 | 1009.6 |
| 20260904190027 | 22 | 216 | 1.6 | 3.2 | 0.00 | 0.00 | 0.00 | 73 | 1009.2 |
| 20260904190020 | 22 | 219 | 4.8 | 9.7 | 0.00 | 0.00 | 0.00 | 72 | 1009.0 |
| 20260904190005 | 22 | 237 | 1.6 | 9.7 | 0.00 | 0.00 | 0.00 | 72 | 1008.8 |
| 20260904185948 | 22 | 194 | 1.6 | 9.7 | 0.00 | 0.00 | 0.00 | 72 | 1008.7 |
| 20260904185924 | 22 | 216 | 3.2 | 11.3 | 0.00 | 0.00 | 0.00 | 72 | 1008.9 |
| 20260904185648 | 22 | 220 | 3.2 | 11.3 | 0.00 | 0.00 | 0.00 | 72 | 1008.9 |
| 20260904185410 | 22 | 192 | 1.6 | 11.3 | 0.00 | 0.00 | 0.00 | 72 | 1009.1 |
| 20260904185347 | 22 | 198 | 0.0 | 11.3 | 0.00 | 0.00 | 0.00 | 73 | 1009.0 |
| 20260904185110 | 22 | 198 | 0.0 | 11.3 | 0.00 | 0.00 | 0.00 | 73 | 1009.1 |
| 20260904185056 | 22 | 190 | 0.0 | 11.3 | 0.00 | 0.00 | 0.00 | 73 | 1009.0 |
| 20260904185041 | 22 | 167 | 1.6 | 11.3 | 0.00 | 0.00 | 0.00 | 73 | 1009.2 |
| 20260904185016 | 22 | 192 | 0.0 | 9.7 | 0.00 | 0.00 | 0.00 | 73 | 1009.3 |
| 20260904185001 | 22 | 210 | 0.0 | 9.7 | 0.00 | 0.00 | 0.00 | 73 | 1009.1 |
| 20260904184945 | 22 | 201 | 0.0 | 9.7 | 0.00 | 0.00 | 0.00 | 73 | 1009.3 |
| 20260904184929 | 22 | 202 | 0.0 | 9.7 | 0.00 | 0.00 | 0.00 | 73 | 1009.2 |
| 20260904184912 | 22 | 224 | 0.0 | 9.7 | 0.00 | 0.00 | 0.00 | 73 | 1009.1 |
| 20260904184646 | 22 | 194 | 0.0 | 9.7 | 0.00 | 0.00 | 0.00 | 73 | 1009.1 |
| 20260904184630 | 22 | 197 | 0.0 | 9.7 | 0.00 | 0.00 | 0.00 | 73 | 1009.3 |
| 20260904184614 | 22 | 208 | 1.6 | 9.7 | 0.00 | 0.00 | 0.00 | 73 | 1009.3 |
| 20260904184115 | 22 | 216 | 1.6 | 3.2 | 0.00 | 0.00 | 0.00 | 73 | 1009.2 |
| 20260904183640 | 22 | 177 | 0.0 | 3.2 | 0.00 | 0.00 | 0.00 | 73 | 1009.2 |
| 20260904183625 | 22 | 196 | 0.0 | 3.2 | 0.00 | 0.00 | 0.00 | 73 | 1009.4 |
| 20260904183609 | 22 | 217 | 3.2 | 3.2 | 0.00 | 0.00 | 0.00 | 74 | 1009.3 |
| 20260904183553 | 22 | 199 | 0.0 | 3.2 | 0.00 | 0.00 | 0.00 | 74 | 1009.5 |
| 20260904183531 | 22 | 198 | 1.6 | 3.2 | 0.00 | 0.00 | 0.00 | 73 | 1009.4 |
| 20260904183515 | 22 | 205 | 0.0 | 3.2 | 0.00 | 0.00 | 0.00 | 73 | 1009.1 |
| 20260904183459 | 22 | 203 | 0.0 | 3.2 | 0.00 | 0.00 | 0.00 | 73 | 1009.7 |
| 20260904183444 | 22 | 204 | 0.0 | 3.2 | 0.00 | 0.00 | 0.00 | 73 | 1009.7 |